Wetterdaten: Mittwoch, 03.08.2016
Datum Zeit Temp. A. Feuchte A. Luftdruck Regen Wind Richtung Richtung Sonnenschein ET UV Solar Taupunkt Windchill Windben Empfang
03.08.2016 00:00 16,6 C 93 % 1017,4 hPa 0,0 l/m 14,3 km/h (3 Bft) SW 229 0 min 0,000 mm 0,0 UV-I 0 W/m 15,5 C 13,3 C 22,5 km/h (4 Bft) 97,87 %
03.08.2016 00:02 16,6 C 93 % 1017,4 hPa 0,0 l/m 17,4 km/h (3 Bft) SW 229 0 min 0,000 mm 0,0 UV-I 0 W/m 15,5 C 12,5 C 32,2 km/h (5 Bft) 95,45 %
03.08.2016 00:04 16,7 C 93 % 1017,5 hPa 0,0 l/m 15,8 km/h (3 Bft) W-SW 250 0 min 0,000 mm 0,0 UV-I 0 W/m 15,6 C 13,0 C 22,5 km/h (4 Bft) 97,87 %
03.08.2016 00:06 16,7 C 93 % 1017,5 hPa 0,0 l/m 12,4 km/h (3 Bft) W-SW 246 0 min 0,000 mm 0,0 UV-I 0 W/m 15,6 C 14,1 C 17,7 km/h (3 Bft) 100,00 %
03.08.2016 00:08 16,7 C 93 % 1017,5 hPa 0,0 l/m 9,9 km/h (2 Bft) W-SW 258 0 min 0,000 mm 0,0 UV-I 0 W/m 15,6 C 15,0 C 19,3 km/h (3 Bft) 100,00 %
03.08.2016 00:10 16,7 C 93 % 1017,4 hPa 0,0 l/m 11,2 km/h (2 Bft) W-SW 246 0 min 0,000 mm 0,0 UV-I 0 W/m 15,6 C 14,5 C 19,3 km/h (3 Bft) 95,12 %
03.08.2016 00:12 16,7 C 93 % 1017,5 hPa 0,0 l/m 11,3 km/h (2 Bft) W-SW 254 0 min 0,000 mm 0,0 UV-I 0 W/m 15,6 C 14,5 C 16,1 km/h (3 Bft) 98,11 %
03.08.2016 00:14 16,7 C 93 % 1017,5 hPa 0,0 l/m 12,8 km/h (3 Bft) SW 222 0 min 0,000 mm 0,0 UV-I 0 W/m 15,6 C 14,0 C 20,9 km/h (4 Bft) 97,37 %
03.08.2016 00:16 16,7 C 93 % 1017,5 hPa 0,0 l/m 12,6 km/h (3 Bft) W-SW 241 0 min 0,000 mm 0,0 UV-I 0 W/m 15,6 C 14,0 C 16,1 km/h (3 Bft) 97,87 %
03.08.2016 00:18 16,7 C 93 % 1017,5 hPa 0,0 l/m 9,5 km/h (2 Bft) SW 218 0 min 0,000 mm 0,0 UV-I 0 W/m 15,6 C 15,2 C 16,1 km/h (3 Bft) 100,00 %
03.08.2016 00:20 16,7 C 93 % 1017,5 hPa 0,0 l/m 9,4 km/h (2 Bft) SW 222 0 min 0,000 mm 0,0 UV-I 0 W/m 15,6 C 15,2 C 16,1 km/h (3 Bft) 100,00 %
03.08.2016 00:22 16,7 C 93 % 1017,5 hPa 0,0 l/m 9,1 km/h (2 Bft) S-SW 206 0 min 0,000 mm 0,0 UV-I 0 W/m 15,6 C 15,4 C 19,3 km/h (3 Bft) 100,00 %
03.08.2016 00:24 16,7 C 93 % 1017,5 hPa 0,0 l/m 8,8 km/h (2 Bft) SW 219 0 min 0,000 mm 0,0 UV-I 0 W/m 15,6 C 15,5 C 12,9 km/h (3 Bft) 100,00 %
03.08.2016 00:26 16,7 C 94 % 1017,5 hPa 0,0 l/m 12,9 km/h (3 Bft) SW 215 0 min 0,000 mm 0,0 UV-I 0 W/m 15,7 C 13,9 C 19,3 km/h (3 Bft) 100,00 %
03.08.2016 00:28 16,7 C 93 % 1017,5 hPa 0,0 l/m 9,1 km/h (2 Bft) SW 227 0 min 0,000 mm 0,0 UV-I 0 W/m 15,6 C 15,4 C 14,5 km/h (3 Bft) 100,00 %
03.08.2016 00:30 16,7 C 93 % 1017,5 hPa 0,0 l/m 11,0 km/h (2 Bft) SW 215 0 min 0,000 mm 0,0 UV-I 0 W/m 15,6 C 14,6 C 16,1 km/h (3 Bft) 100,00 %
03.08.2016 00:32 16,7 C 93 % 1017,5 hPa 0,0 l/m 14,5 km/h (3 Bft) SW 223 0 min 0,000 mm 0,0 UV-I 0 W/m 15,6 C 13,4 C 22,5 km/h (4 Bft) 100,00 %
03.08.2016 00:34 16,7 C 93 % 1017,5 hPa 0,0 l/m 15,3 km/h (3 Bft) SW 236 0 min 0,000 mm 0,0 UV-I 0 W/m 15,6 C 13,2 C 22,5 km/h (4 Bft) 100,00 %
03.08.2016 00:36 16,7 C 93 % 1017,5 hPa 0,0 l/m 11,5 km/h (2 Bft) W-SW 243 0 min 0,000 mm 0,0 UV-I 0 W/m 15,6 C 14,4 C 20,9 km/h (4 Bft) 100,00 %
03.08.2016 00:38 16,7 C 93 % 1017,5 hPa 0,0 l/m 12,6 km/h (3 Bft) W 272 0 min 0,000 mm 0,0 UV-I 0 W/m 15,6 C 14,0 C 22,5 km/h (4 Bft) 100,00 %
03.08.2016 00:40 16,7 C 93 % 1017,6 hPa 0,0 l/m 14,1 km/h (3 Bft) W 275 0 min 0,000 mm 0,0 UV-I 0 W/m 15,6 C 13,5 C 20,9 km/h (4 Bft) 95,45 %
03.08.2016 00:42 16,7 C 93 % 1017,7 hPa 0,0 l/m 7,3 km/h (2 Bft) W-SW 257 0 min 0,000 mm 0,0 UV-I 0 W/m 15,6 C 16,2 C 20,9 km/h (4 Bft) 100,00 %
03.08.2016 00:44 16,7 C 94 % 1017,7 hPa 0,0 l/m 2,3 km/h (1 Bft) W 261 0 min 0,000 mm 0,0 UV-I 0 W/m 15,7 C 16,7 C 6,4 km/h (2 Bft) 100,00 %
03.08.2016 00:46 16,7 C 94 % 1017,7 hPa 0,0 l/m 4,0 km/h (1 Bft) W-SW 250 0 min 0,000 mm 0,0 UV-I 0 W/m 15,7 C 16,7 C 6,4 km/h (2 Bft) 100,00 %
03.08.2016 00:48 16,6 C 93 % 1017,7 hPa 0,4 l/m 4,9 km/h (1 Bft) W 275 0 min 0,000 mm 0,0 UV-I 0 W/m 15,5 C 16,6 C 8,0 km/h (2 Bft) 100,00 %
03.08.2016 00:50 16,4 C 93 % 1017,6 hPa 0,0 l/m 3,8 km/h (1 Bft) W 278 0 min 0,000 mm 0,0 UV-I 0 W/m 15,3 C 16,4 C 11,3 km/h (2 Bft) 100,00 %
03.08.2016 00:52 16,3 C 93 % 1017,6 hPa 0,2 l/m 3,1 km/h (1 Bft) W 272 0 min 0,000 mm 0,0 UV-I 0 W/m 15,2 C 16,3 C 6,4 km/h (2 Bft) 100,00 %
03.08.2016 00:54 16,3 C 94 % 1017,6 hPa 0,0 l/m 0,5 km/h (0 Bft) W 273 0 min 0,000 mm 0,0 UV-I 0 W/m 15,3 C 16,3 C 1,6 km/h (1 Bft) 98,00 %
03.08.2016 00:56 16,3 C 94 % 1017,7 hPa 0,0 l/m 4,2 km/h (1 Bft) SW 229 0 min 0,000 mm 0,0 UV-I 0 W/m 15,3 C 16,3 C 9,7 km/h (2 Bft) 100,00 %
03.08.2016 00:58 16,2 C 94 % 1017,7 hPa 0,0 l/m 6,7 km/h (2 Bft) S-SW 207 0 min 0,000 mm 0,0 UV-I 0 W/m 15,2 C 16,1 C 11,3 km/h (2 Bft) 100,00 %
03.08.2016 01:00 16,2 C 94 % 1017,7 hPa 0,2 l/m 7,6 km/h (2 Bft) W-SW 251 0 min 0,000 mm 0,0 UV-I 0 W/m 15,2 C 15,6 C 14,5 km/h (3 Bft) 100,00 %
03.08.2016 01:02 16,2 C 94 % 1017,7 hPa 0,0 l/m 5,7 km/h (1 Bft) W-NW 299 0 min 0,000 mm 0,0 UV-I 0 W/m 15,2 C 16,2 C 11,3 km/h (2 Bft) 95,74 %
03.08.2016 01:04 16,2 C 94 % 1017,7 hPa 0,0 l/m 3,7 km/h (1 Bft) W-NW 302 0 min 0,000 mm 0,0 UV-I 0 W/m 15,2 C 16,2 C 8,0 km/h (2 Bft) 100,00 %
03.08.2016 01:06 16,1 C 94 % 1017,7 hPa 0,2 l/m 2,3 km/h (1 Bft) W 279 0 min 0,000 mm 0,0 UV-I 0 W/m 15,1 C 16,1 C 4,8 km/h (1 Bft) 100,00 %
03.08.2016 01:08 16,1 C 94 % 1017,7 hPa 0,0 l/m 3,1 km/h (1 Bft) W-SW 246 0 min 0,000 mm 0,0 UV-I 0 W/m 15,1 C 16,1 C 4,8 km/h (1 Bft) 97,56 %
03.08.2016 01:10 16,1 C 95 % 1017,8 hPa 0,0 l/m 5,6 km/h (1 Bft) W-SW 247 0 min 0,000 mm 0,0 UV-I 0 W/m 15,3 C 16,1 C 8,0 km/h (2 Bft) 100,00 %
03.08.2016 01:12 16,1 C 95 % 1017,8 hPa 0,2 l/m 4,6 km/h (1 Bft) W-SW 252 0 min 0,000 mm 0,0 UV-I 0 W/m 15,3 C 16,1 C 8,0 km/h (2 Bft) 100,00 %
03.08.2016 01:14 16,1 C 95 % 1017,7 hPa 0,0 l/m 6,1 km/h (2 Bft) W 260 0 min 0,000 mm 0,0 UV-I 0 W/m 15,3 C 16,1 C 9,7 km/h (2 Bft) 100,00 %
03.08.2016 01:16 16,1 C 95 % 1017,7 hPa 0,0 l/m 3,8 km/h (1 Bft) W-SW 242 0 min 0,000 mm 0,0 UV-I 0 W/m 15,3 C 16,1 C 9,7 km/h (2 Bft) 97,87 %
03.08.2016 01:18 16,0 C 95 % 1017,7 hPa 0,0 l/m 4,3 km/h (1 Bft) W 266 0 min 0,000 mm 0,0 UV-I 0 W/m 15,2 C 16,0 C 6,4 km/h (2 Bft) 100,00 %
03.08.2016 01:20 16,1 C 95 % 1017,6 hPa 0,0 l/m 5,4 km/h (1 Bft) W-SW 252 0 min 0,000 mm 0,0 UV-I 0 W/m 15,3 C 16,1 C 9,7 km/h (2 Bft) 97,87 %
03.08.2016 01:22 16,0 C 95 % 1017,6 hPa 0,0 l/m 6,8 km/h (2 Bft) S-SW 202 0 min 0,000 mm 0,0 UV-I 0 W/m 15,2 C 15,8 C 11,3 km/h (2 Bft) 100,00 %
03.08.2016 01:24 16,0 C 95 % 1017,5 hPa 0,2 l/m 4,3 km/h (1 Bft) S-SW 210 0 min 0,000 mm 0,0 UV-I 0 W/m 15,2 C 16,0 C 6,4 km/h (2 Bft) 97,56 %
03.08.2016 01:26 16,0 C 95 % 1017,6 hPa 0,0 l/m 5,4 km/h (1 Bft) SW 223 0 min 0,000 mm 0,0 UV-I 0 W/m 15,2 C 16,0 C 8,0 km/h (2 Bft) 100,00 %
03.08.2016 01:28 15,9 C 95 % 1017,6 hPa 0,0 l/m 6,9 km/h (2 Bft) W-SW 239 0 min 0,000 mm 0,0 UV-I 0 W/m 15,1 C 15,6 C 11,3 km/h (2 Bft) 100,00 %
03.08.2016 01:30 15,9 C 95 % 1017,6 hPa 0,0 l/m 5,5 km/h (1 Bft) SW 219 0 min 0,000 mm 0,0 UV-I 0 W/m 15,1 C 15,9 C 8,0 km/h (2 Bft) 100,00 %
03.08.2016 01:32 15,9 C 95 % 1017,6 hPa 0,0 l/m 5,4 km/h (1 Bft) SW 227 0 min 0,000 mm 0,0 UV-I 0 W/m 15,1 C 15,9 C 8,0 km/h (2 Bft) 97,73 %
03.08.2016 01:34 15,9 C 95 % 1017,6 hPa 0,0 l/m 5,4 km/h (1 Bft) SW 215 0 min 0,000 mm 0,0 UV-I 0 W/m 15,1 C 15,9 C 8,0 km/h (2 Bft) 98,11 %
03.08.2016 01:36 15,9 C 95 % 1017,6 hPa 0,0 l/m 6,3 km/h (2 Bft) W-SW 247 0 min 0,000 mm 0,0 UV-I 0 W/m 15,1 C 15,9 C 11,3 km/h (2 Bft) 96,00 %
03.08.2016 01:38 15,9 C 95 % 1017,6 hPa 0,0 l/m 6,3 km/h (2 Bft) SW 223 0 min 0,000 mm 0,0 UV-I 0 W/m 15,1 C 15,9 C 9,7 km/h (2 Bft) 95,45 %
03.08.2016 01:40 15,9 C 95 % 1017,7 hPa 0,0 l/m 5,3 km/h (1 Bft) SW 214 0 min 0,000 mm 0,0 UV-I 0 W/m 15,1 C 15,9 C 11,3 km/h (2 Bft) 97,73 %
03.08.2016 01:42 15,9 C 95 % 1017,7 hPa 0,0 l/m 4,5 km/h (1 Bft) S 177 0 min 0,000 mm 0,0 UV-I 0 W/m 15,1 C 15,9 C 8,0 km/h (2 Bft) 98,00 %
03.08.2016 01:44 15,9 C 95 % 1017,7 hPa 0,0 l/m 7,6 km/h (2 Bft) W-SW 246 0 min 0,000 mm 0,0 UV-I 0 W/m 15,1 C 15,3 C 14,5 km/h (3 Bft) 97,56 %
03.08.2016 01:46 15,9 C 95 % 1017,7 hPa 0,0 l/m 7,5 km/h (2 Bft) SW 229 0 min 0,000 mm 0,0 UV-I 0 W/m 15,1 C 15,3 C 9,7 km/h (2 Bft) 97,62 %
03.08.2016 01:48 15,9 C 95 % 1017,8 hPa 0,0 l/m 4,3 km/h (1 Bft) W-SW 247 0 min 0,000 mm 0,0 UV-I 0 W/m 15,1 C 15,9 C 9,7 km/h (2 Bft) 98,18 %
03.08.2016 01:50 16,0 C 95 % 1017,8 hPa 0,0 l/m 4,6 km/h (1 Bft) SW 225 0 min 0,000 mm 0,0 UV-I 0 W/m 15,2 C 16,0 C 6,4 km/h (2 Bft) 97,92 %
03.08.2016 01:52 16,0 C 96 % 1017,8 hPa 0,0 l/m 5,6 km/h (1 Bft) W-SW 247 0 min 0,000 mm 0,0 UV-I 0 W/m 15,4 C 16,0 C 9,7 km/h (2 Bft) 97,56 %
03.08.2016 01:54 16,0 C 96 % 1017,8 hPa 0,0 l/m 5,2 km/h (1 Bft) SW 224 0 min 0,000 mm 0,0 UV-I 0 W/m 15,4 C 16,0 C 8,0 km/h (2 Bft) 96,23 %
03.08.2016 01:56 16,1 C 96 % 1017,8 hPa 0,0 l/m 6,9 km/h (2 Bft) S-SW 210 0 min 0,000 mm 0,0 UV-I 0 W/m 15,5 C 15,8 C 11,3 km/h (2 Bft) 97,56 %
03.08.2016 01:58 16,1 C 96 % 1017,8 hPa 0,0 l/m 7,9 km/h (2 Bft) SW 234 0 min 0,000 mm 0,0 UV-I 0 W/m 15,5 C 15,3 C 16,1 km/h (3 Bft) 97,87 %
03.08.2016 02:00 16,1 C 96 % 1017,7 hPa 0,0 l/m 6,8 km/h (2 Bft) S-SW 202 0 min 0,000 mm 0,0 UV-I 0 W/m 15,5 C 15,9 C 14,5 km/h (3 Bft) 98,00 %
03.08.2016 02:02 16,1 C 96 % 1017,8 hPa 0,0 l/m 9,7 km/h (2 Bft) SW 225 0 min 0,000 mm 0,0 UV-I 0 W/m 15,5 C 14,5 C 17,7 km/h (3 Bft) 95,74 %
03.08.2016 02:04 16,2 C 96 % 1017,7 hPa 0,0 l/m 12,4 km/h (3 Bft) S 188 0 min 0,000 mm 0,0 UV-I 0 W/m 15,6 C 13,5 C 19,3 km/h (3 Bft) 98,00 %
03.08.2016 02:06 16,2 C 96 % 1017,7 hPa 0,0 l/m 9,6 km/h (2 Bft) W-SW 258 0 min 0,000 mm 0,0 UV-I 0 W/m 15,6 C 14,6 C 17,7 km/h (3 Bft) 96,15 %
03.08.2016 02:08 16,2 C 96 % 1017,7 hPa 0,0 l/m 12,6 km/h (3 Bft) S-SW 209 0 min 0,000 mm 0,0 UV-I 0 W/m 15,6 C 13,4 C 20,9 km/h (4 Bft) 100,00 %
03.08.2016 02:10 16,2 C 96 % 1017,7 hPa 0,0 l/m 8,9 km/h (2 Bft) W-SW 239 0 min 0,000 mm 0,0 UV-I 0 W/m 15,6 C 14,9 C 12,9 km/h (3 Bft) 98,11 %
03.08.2016 02:12 16,2 C 96 % 1017,6 hPa 0,0 l/m 6,8 km/h (2 Bft) W-SW 248 0 min 0,000 mm 0,0 UV-I 0 W/m 15,6 C 16,0 C 17,7 km/h (3 Bft) 100,00 %
03.08.2016 02:14 16,3 C 96 % 1017,7 hPa 0,0 l/m 14,2 km/h (3 Bft) SW 228 0 min 0,000 mm 0,0 UV-I 0 W/m 15,7 C 13,0 C 20,9 km/h (4 Bft) 95,74 %
03.08.2016 02:16 16,2 C 96 % 1017,7 hPa 0,0 l/m 9,4 km/h (2 Bft) SW 234 0 min 0,000 mm 0,0 UV-I 0 W/m 15,6 C 14,7 C 16,1 km/h (3 Bft) 98,15 %
03.08.2016 02:18 16,2 C 96 % 1017,7 hPa 0,0 l/m 11,6 km/h (2 Bft) SW 215 0 min 0,000 mm 0,0 UV-I 0 W/m 15,6 C 13,8 C 17,7 km/h (3 Bft) 97,37 %
03.08.2016 02:20 16,2 C 96 % 1017,8 hPa 0,0 l/m 10,4 km/h (2 Bft) SW 217 0 min 0,000 mm 0,0 UV-I 0 W/m 15,6 C 14,3 C 17,7 km/h (3 Bft) 98,11 %
03.08.2016 02:22 16,2 C 96 % 1017,8 hPa 0,0 l/m 11,0 km/h (2 Bft) SW 219 0 min 0,000 mm 0,0 UV-I 0 W/m 15,6 C 14,0 C 14,5 km/h (3 Bft) 100,00 %
03.08.2016 02:24 16,2 C 96 % 1017,8 hPa 0,0 l/m 13,2 km/h (3 Bft) SW 221 0 min 0,000 mm 0,0 UV-I 0 W/m 15,6 C 13,2 C 20,9 km/h (4 Bft) 100,00 %
03.08.2016 02:26 16,2 C 96 % 1017,8 hPa 0,0 l/m 11,9 km/h (2 Bft) SW 231 0 min 0,000 mm 0,0 UV-I 0 W/m 15,6 C 13,7 C 17,7 km/h (3 Bft) 98,00 %
03.08.2016 02:28 16,3 C 96 % 1017,8 hPa 0,0 l/m 10,1 km/h (2 Bft) SW 229 0 min 0,000 mm 0,0 UV-I 0 W/m 15,7 C 14,5 C 14,5 km/h (3 Bft) 100,00 %
03.08.2016 02:30 16,3 C 96 % 1017,8 hPa 0,0 l/m 11,0 km/h (2 Bft) W-SW 255 0 min 0,000 mm 0,0 UV-I 0 W/m 15,7 C 14,1 C 16,1 km/h (3 Bft) 100,00 %
03.08.2016 02:32 16,3 C 96 % 1017,8 hPa 0,0 l/m 10,7 km/h (2 Bft) SW 236 0 min 0,000 mm 0,0 UV-I 0 W/m 15,7 C 14,3 C 17,7 km/h (3 Bft) 100,00 %
03.08.2016 02:34 16,3 C 96 % 1017,8 hPa 0,2 l/m 11,7 km/h (2 Bft) W-SW 237 0 min 0,000 mm 0,0 UV-I 0 W/m 15,7 C 13,9 C 17,7 km/h (3 Bft) 100,00 %
03.08.2016 02:36 16,3 C 96 % 1017,9 hPa 0,0 l/m 9,4 km/h (2 Bft) W-SW 242 0 min 0,000 mm 0,0 UV-I 0 W/m 15,7 C 14,8 C 16,1 km/h (3 Bft) 97,37 %
03.08.2016 02:38 16,3 C 96 % 1017,9 hPa 0,0 l/m 9,8 km/h (2 Bft) W-SW 252 0 min 0,000 mm 0,0 UV-I 0 W/m 15,7 C 14,6 C 14,5 km/h (3 Bft) 100,00 %
03.08.2016 02:40 16,3 C 96 % 1017,9 hPa 0,0 l/m 11,8 km/h (2 Bft) W-SW 248 0 min 0,000 mm 0,0 UV-I 0 W/m 15,7 C 13,8 C 19,3 km/h (3 Bft) 100,00 %
03.08.2016 02:42 16,3 C 96 % 1017,8 hPa 0,0 l/m 10,7 km/h (2 Bft) W-SW 254 0 min 0,000 mm 0,0 UV-I 0 W/m 15,7 C 14,3 C 16,1 km/h (3 Bft) 100,00 %
03.08.2016 02:44 16,3 C 96 % 1017,8 hPa 0,0 l/m 12,1 km/h (2 Bft) W-SW 240 0 min 0,000 mm 0,0 UV-I 0 W/m 15,7 C 13,7 C 19,3 km/h (3 Bft) 100,00 %
03.08.2016 02:46 16,3 C 96 % 1017,8 hPa 0,0 l/m 10,6 km/h (2 Bft) W-SW 249 0 min 0,000 mm 0,0 UV-I 0 W/m 15,7 C 14,3 C 17,7 km/h (3 Bft) 97,73 %
03.08.2016 02:48 16,3 C 96 % 1017,8 hPa 0,0 l/m 10,2 km/h (2 Bft) W 265 0 min 0,000 mm 0,0 UV-I 0 W/m 15,7 C 14,5 C 14,5 km/h (3 Bft) 98,11 %
03.08.2016 02:50 16,3 C 96 % 1017,8 hPa 0,2 l/m 6,7 km/h (2 Bft) SW 214 0 min 0,000 mm 0,0 UV-I 0 W/m 15,7 C 16,2 C 11,3 km/h (2 Bft) 97,37 %
03.08.2016 02:52 16,3 C 96 % 1017,8 hPa 0,0 l/m 7,4 km/h (2 Bft) S-SW 212 0 min 0,000 mm 0,0 UV-I 0 W/m 15,7 C 15,8 C 11,3 km/h (2 Bft) 100,00 %
03.08.2016 02:54 16,3 C 96 % 1017,8 hPa 0,0 l/m 7,1 km/h (2 Bft) S-SW 205 0 min 0,000 mm 0,0 UV-I 0 W/m 15,7 C 15,9 C 9,7 km/h (2 Bft) 100,00 %
03.08.2016 02:56 16,3 C 96 % 1017,7 hPa 0,0 l/m 8,9 km/h (2 Bft) W 264 0 min 0,000 mm 0,0 UV-I 0 W/m 15,7 C 15,0 C 12,9 km/h (3 Bft) 100,00 %
03.08.2016 02:58 16,3 C 96 % 1017,7 hPa 0,0 l/m 8,4 km/h (2 Bft) W 263 0 min 0,000 mm 0,0 UV-I 0 W/m 15,7 C 15,3 C 12,9 km/h (3 Bft) 100,00 %
03.08.2016 03:00 16,3 C 96 % 1017,7 hPa 0,0 l/m 7,8 km/h (2 Bft) W-SW 243 0 min 0,000 mm 0,0 UV-I 0 W/m 15,7 C 15,6 C 11,3 km/h (2 Bft) 100,00 %
03.08.2016 03:02 16,3 C 96 % 1017,6 hPa 0,0 l/m 7,5 km/h (2 Bft) W 268 0 min 0,000 mm 0,0 UV-I 0 W/m 15,7 C 15,7 C 12,9 km/h (3 Bft) 100,00 %
03.08.2016 03:04 16,3 C 96 % 1017,7 hPa 0,0 l/m 6,3 km/h (2 Bft) SW 229 0 min 0,000 mm 0,0 UV-I 0 W/m 15,7 C 16,3 C 9,7 km/h (2 Bft) 100,00 %
03.08.2016 03:06 16,3 C 96 % 1017,7 hPa 0,0 l/m 8,5 km/h (2 Bft) W-SW 246 0 min 0,000 mm 0,0 UV-I 0 W/m 15,7 C 15,2 C 12,9 km/h (3 Bft) 100,00 %
03.08.2016 03:08 16,3 C 96 % 1017,7 hPa 0,0 l/m 5,8 km/h (2 Bft) SW 223 0 min 0,000 mm 0,0 UV-I 0 W/m 15,7 C 16,3 C 11,3 km/h (2 Bft) 100,00 %
03.08.2016 03:10 16,3 C 96 % 1017,7 hPa 0,0 l/m 6,8 km/h (2 Bft) SW 232 0 min 0,000 mm 0,0 UV-I 0 W/m 15,7 C 16,1 C 11,3 km/h (2 Bft) 100,00 %
03.08.2016 03:12 16,3 C 96 % 1017,6 hPa 0,0 l/m 6,4 km/h (2 Bft) S-SW 196 0 min 0,000 mm 0,0 UV-I 0 W/m 15,7 C 16,3 C 12,9 km/h (3 Bft) 100,00 %
03.08.2016 03:14 16,3 C 96 % 1017,6 hPa 0,0 l/m 6,0 km/h (2 Bft) SW 217 0 min 0,000 mm 0,0 UV-I 0 W/m 15,7 C 16,3 C 8,0 km/h (2 Bft) 100,00 %
03.08.2016 03:16 16,3 C 96 % 1017,6 hPa 0,0 l/m 5,3 km/h (1 Bft) W-SW 241 0 min 0,000 mm 0,0 UV-I 0 W/m 15,7 C 16,3 C 9,7 km/h (2 Bft) 100,00 %
03.08.2016 03:18 16,3 C 96 % 1017,6 hPa 0,0 l/m 5,9 km/h (2 Bft) S 170 0 min 0,000 mm 0,0 UV-I 0 W/m 15,7 C 16,3 C 11,3 km/h (2 Bft) 100,00 %
03.08.2016 03:20 16,3 C 96 % 1017,5 hPa 0,0 l/m 7,6 km/h (2 Bft) S-SO 156 0 min 0,000 mm 0,0 UV-I 0 W/m 15,7 C 15,7 C 9,7 km/h (2 Bft) 100,00 %
03.08.2016 03:22 16,3 C 96 % 1017,4 hPa 0,0 l/m 7,6 km/h (2 Bft) S 178 0 min 0,000 mm 0,0 UV-I 0 W/m 15,7 C 15,7 C 11,3 km/h (2 Bft) 98,21 %
03.08.2016 03:24 16,3 C 96 % 1017,4 hPa 0,0 l/m 7,1 km/h (2 Bft) S 171 0 min 0,000 mm 0,0 UV-I 0 W/m 15,7 C 15,9 C 9,7 km/h (2 Bft) 100,00 %
03.08.2016 03:26 16,3 C 96 % 1017,4 hPa 0,0 l/m 7,9 km/h (2 Bft) SW 220 0 min 0,000 mm 0,0 UV-I 0 W/m 15,7 C 15,5 C 11,3 km/h (2 Bft) 100,00 %
03.08.2016 03:28 16,3 C 96 % 1017,4 hPa 0,0 l/m 8,1 km/h (2 Bft) S 188 0 min 0,000 mm 0,0 UV-I 0 W/m 15,7 C 15,4 C 12,9 km/h (3 Bft) 97,87 %
03.08.2016 03:30 16,3 C 96 % 1017,4 hPa 0,0 l/m 5,6 km/h (1 Bft) S-SW 193 0 min 0,000 mm 0,0 UV-I 0 W/m 15,7 C 16,3 C 8,0 km/h (2 Bft) 95,74 %
03.08.2016 03:32 16,3 C 96 % 1017,4 hPa 0,0 l/m 6,6 km/h (2 Bft) S 185 0 min 0,000 mm 0,0 UV-I 0 W/m 15,7 C 16,2 C 12,9 km/h (3 Bft) 97,73 %
03.08.2016 03:34 16,3 C 96 % 1017,4 hPa 0,0 l/m 7,6 km/h (2 Bft) S-SO 161 0 min 0,000 mm 0,0 UV-I 0 W/m 15,7 C 15,7 C 11,3 km/h (2 Bft) 98,11 %
03.08.2016 03:36 16,3 C 96 % 1017,4 hPa 0,0 l/m 4,2 km/h (1 Bft) S-SW 195 0 min 0,000 mm 0,0 UV-I 0 W/m 15,7 C 16,3 C 9,7 km/h (2 Bft) 96,00 %
03.08.2016 03:38 16,3 C 96 % 1017,4 hPa 0,0 l/m 6,5 km/h (2 Bft) S 169 0 min 0,000 mm 0,0 UV-I 0 W/m 15,7 C 16,3 C 9,7 km/h (2 Bft) 94,00 %
03.08.2016 03:40 16,3 C 96 % 1017,4 hPa 0,0 l/m 6,9 km/h (2 Bft) S 187 0 min 0,000 mm 0,0 UV-I 0 W/m 15,7 C 16,0 C 12,9 km/h (3 Bft) 100,00 %
03.08.2016 03:42 16,3 C 96 % 1017,4 hPa 0,0 l/m 7,4 km/h (2 Bft) SO 145 0 min 0,000 mm 0,0 UV-I 0 W/m 15,7 C 15,8 C 9,7 km/h (2 Bft) 93,62 %
03.08.2016 03:44 16,3 C 96 % 1017,4 hPa 0,0 l/m 6,3 km/h (2 Bft) SW 216 0 min 0,000 mm 0,0 UV-I 0 W/m 15,7 C 16,3 C 9,7 km/h (2 Bft) 98,11 %
03.08.2016 03:46 16,3 C 96 % 1017,4 hPa 0,0 l/m 6,1 km/h (2 Bft) S-SO 168 0 min 0,000 mm 0,0 UV-I 0 W/m 15,7 C 16,3 C 11,3 km/h (2 Bft) 95,24 %
03.08.2016 03:48 16,3 C 96 % 1017,3 hPa 0,0 l/m 7,1 km/h (2 Bft) SW 221 0 min 0,000 mm 0,0 UV-I 0 W/m 15,7 C 15,9 C 14,5 km/h (3 Bft) 98,11 %
03.08.2016 03:50 16,3 C 96 % 1017,4 hPa 0,0 l/m 8,3 km/h (2 Bft) SW 217 0 min 0,000 mm 0,0 UV-I 0 W/m 15,7 C 15,3 C 11,3 km/h (2 Bft) 95,12 %
03.08.2016 03:52 16,3 C 96 % 1017,3 hPa 0,0 l/m 6,5 km/h (2 Bft) SW 222 0 min 0,000 mm 0,0 UV-I 0 W/m 15,7 C 16,3 C 9,7 km/h (2 Bft) 96,23 %
03.08.2016 03:54 16,3 C 96 % 1017,4 hPa 0,0 l/m 6,6 km/h (2 Bft) S-SW 209 0 min 0,000 mm 0,0 UV-I 0 W/m 15,7 C 16,2 C 8,0 km/h (2 Bft) 97,87 %
03.08.2016 03:56 16,3 C 96 % 1017,4 hPa 0,0 l/m 4,3 km/h (1 Bft) S 177 0 min 0,000 mm 0,0 UV-I 0 W/m 15,7 C 16,3 C 9,7 km/h (2 Bft) 97,37 %
03.08.2016 03:58 16,3 C 96 % 1017,3 hPa 0,0 l/m 5,1 km/h (1 Bft) SW 233 0 min 0,000 mm 0,0 UV-I 0 W/m 15,7 C 16,3 C 9,7 km/h (2 Bft) 96,23 %
03.08.2016 04:00 16,3 C 96 % 1017,4 hPa 0,0 l/m 5,0 km/h (1 Bft) S-SW 197 0 min 0,000 mm 0,0 UV-I 0 W/m 15,7 C 16,3 C 8,0 km/h (2 Bft) 95,12 %
03.08.2016 04:02 16,3 C 96 % 1017,4 hPa 0,0 l/m 6,9 km/h (2 Bft) S 188 0 min 0,000 mm 0,0 UV-I 0 W/m 15,7 C 16,0 C 11,3 km/h (2 Bft) 100,00 %
03.08.2016 04:04 16,3 C 96 % 1017,4 hPa 0,0 l/m 6,3 km/h (2 Bft) W-SW 238 0 min 0,000 mm 0,0 UV-I 0 W/m 15,7 C 16,3 C 9,7 km/h (2 Bft) 97,73 %
03.08.2016 04:06 16,3 C 96 % 1017,3 hPa 0,0 l/m 4,9 km/h (1 Bft) SW 222 0 min 0,000 mm 0,0 UV-I 0 W/m 15,7 C 16,3 C 8,0 km/h (2 Bft) 100,00 %
03.08.2016 04:08 16,3 C 96 % 1017,3 hPa 0,0 l/m 6,3 km/h (2 Bft) SW 216 0 min 0,000 mm 0,0 UV-I 0 W/m 15,7 C 16,3 C 11,3 km/h (2 Bft) 97,87 %
03.08.2016 04:10 16,3 C 96 % 1017,3 hPa 0,0 l/m 5,5 km/h (1 Bft) SW 225 0 min 0,000 mm 0,0 UV-I 0 W/m 15,7 C 16,3 C 8,0 km/h (2 Bft) 100,00 %
03.08.2016 04:12 16,3 C 96 % 1017,3 hPa 0,0 l/m 6,2 km/h (2 Bft) S-SW 206 0 min 0,000 mm 0,0 UV-I 0 W/m 15,7 C 16,3 C 8,0 km/h (2 Bft) 96,30 %
03.08.2016 04:14 16,3 C 95 % 1017,3 hPa 0,0 l/m 6,8 km/h (2 Bft) SW 226 0 min 0,000 mm 0,0 UV-I 0 W/m 15,5 C 16,1 C 9,7 km/h (2 Bft) 100,00 %
03.08.2016 04:16 16,3 C 95 % 1017,3 hPa 0,0 l/m 7,1 km/h (2 Bft) W-SW 243 0 min 0,000 mm 0,0 UV-I 0 W/m 15,5 C 15,9 C 11,3 km/h (2 Bft) 98,00 %
03.08.2016 04:18 16,3 C 95 % 1017,2 hPa 0,0 l/m 7,3 km/h (2 Bft) W-SW 248 0 min 0,000 mm 0,0 UV-I 0 W/m 15,5 C 15,8 C 11,3 km/h (2 Bft) 100,00 %
03.08.2016 04:20 16,3 C 95 % 1017,3 hPa 0,0 l/m 5,9 km/h (2 Bft) SW 219 0 min 0,000 mm 0,0 UV-I 0 W/m 15,5 C 16,3 C 8,0 km/h (2 Bft) 100,00 %
03.08.2016 04:22 16,3 C 95 % 1017,3 hPa 0,0 l/m 7,3 km/h (2 Bft) S-SW 200 0 min 0,000 mm 0,0 UV-I 0 W/m 15,5 C 15,8 C 9,7 km/h (2 Bft) 100,00 %
03.08.2016 04:24 16,3 C 96 % 1017,3 hPa 0,0 l/m 6,2 km/h (2 Bft) S 185 0 min 0,000 mm 0,0 UV-I 0 W/m 15,7 C 16,3 C 8,0 km/h (2 Bft) 100,00 %
03.08.2016 04:26 16,3 C 96 % 1017,3 hPa 0,0 l/m 4,8 km/h (1 Bft) SW 223 0 min 0,000 mm 0,0 UV-I 0 W/m 15,7 C 16,3 C 8,0 km/h (2 Bft) 100,00 %
03.08.2016 04:28 16,3 C 96 % 1017,2 hPa 0,0 l/m 6,0 km/h (2 Bft) W-SW 238 0 min 0,000 mm 0,0 UV-I 0 W/m 15,7 C 16,3 C 9,7 km/h (2 Bft) 100,00 %
03.08.2016 04:30 16,2 C 96 % 1017,1 hPa 0,0 l/m 7,4 km/h (2 Bft) S 184 0 min 0,000 mm 0,0 UV-I 0 W/m 15,6 C 15,7 C 11,3 km/h (2 Bft) 100,00 %
03.08.2016 04:32 16,3 C 96 % 1017,1 hPa 0,0 l/m 6,4 km/h (2 Bft) S 188 0 min 0,000 mm 0,0 UV-I 0 W/m 15,7 C 16,3 C 11,3 km/h (2 Bft) 96,23 %
03.08.2016 04:34 16,3 C 96 % 1017,0 hPa 0,0 l/m 6,9 km/h (2 Bft) S-SW 208 0 min 0,000 mm 0,0 UV-I 0 W/m 15,7 C 16,0 C 9,7 km/h (2 Bft) 97,73 %
03.08.2016 04:36 16,3 C 96 % 1017,0 hPa 0,0 l/m 5,9 km/h (2 Bft) S-SW 199 0 min 0,000 mm 0,0 UV-I 0 W/m 15,7 C 16,3 C 9,7 km/h (2 Bft) 100,00 %
03.08.2016 04:38 16,3 C 96 % 1016,9 hPa 0,0 l/m 8,3 km/h (2 Bft) SW 234 0 min 0,000 mm 0,0 UV-I 0 W/m 15,7 C 15,3 C 12,9 km/h (3 Bft) 100,00 %
03.08.2016 04:40 16,2 C 96 % 1016,9 hPa 0,0 l/m 6,4 km/h (2 Bft) SW 217 0 min 0,000 mm 0,0 UV-I 0 W/m 15,6 C 16,2 C 11,3 km/h (2 Bft) 100,00 %
03.08.2016 04:42 16,3 C 96 % 1016,9 hPa 0,0 l/m 6,4 km/h (2 Bft) S 179 0 min 0,000 mm 0,0 UV-I 0 W/m 15,7 C 16,3 C 11,3 km/h (2 Bft) 98,04 %
03.08.2016 04:44 16,3 C 96 % 1016,8 hPa 0,0 l/m 5,8 km/h (2 Bft) S 177 0 min 0,000 mm 0,0 UV-I 0 W/m 15,7 C 16,3 C 11,3 km/h (2 Bft) 97,73 %
03.08.2016 04:46 16,3 C 96 % 1016,8 hPa 0,0 l/m 6,3 km/h (2 Bft) W-SW 244 0 min 0,000 mm 0,0 UV-I 0 W/m 15,7 C 16,3 C 11,3 km/h (2 Bft) 100,00 %
03.08.2016 04:48 16,3 C 95 % 1016,7 hPa 0,0 l/m 6,1 km/h (2 Bft) W-SW 238 0 min 0,000 mm 0,0 UV-I 0 W/m 15,5 C 16,3 C 9,7 km/h (2 Bft) 98,11 %
03.08.2016 04:50 16,3 C 95 % 1016,8 hPa 0,0 l/m 5,5 km/h (1 Bft) W-SW 242 0 min 0,000 mm 0,0 UV-I 0 W/m 15,5 C 16,3 C 11,3 km/h (2 Bft) 98,00 %
03.08.2016 04:52 16,3 C 95 % 1016,8 hPa 0,0 l/m 7,6 km/h (2 Bft) S-SW 205 0 min 0,000 mm 0,0 UV-I 0 W/m 15,5 C 15,7 C 11,3 km/h (2 Bft) 100,00 %
03.08.2016 04:54 16,3 C 95 % 1016,8 hPa 0,0 l/m 6,6 km/h (2 Bft) W-SW 240 0 min 0,000 mm 0,0 UV-I 0 W/m 15,5 C 16,2 C 12,9 km/h (3 Bft) 100,00 %
03.08.2016 04:56 16,3 C 95 % 1016,7 hPa 0,0 l/m 4,8 km/h (1 Bft) S-SW 210 0 min 0,000 mm 0,0 UV-I 0 W/m 15,5 C 16,3 C 8,0 km/h (2 Bft) 100,00 %
03.08.2016 04:58 16,3 C 95 % 1016,8 hPa 0,0 l/m 8,1 km/h (2 Bft) SW 227 0 min 0,000 mm 0,0 UV-I 0 W/m 15,5 C 15,4 C 11,3 km/h (2 Bft) 100,00 %
03.08.2016 05:00 16,3 C 95 % 1016,8 hPa 0,0 l/m 6,3 km/h (2 Bft) SW 235 0 min 0,000 mm 0,0 UV-I 0 W/m 15,5 C 16,3 C 9,7 km/h (2 Bft) 100,00 %
03.08.2016 05:02 16,3 C 95 % 1016,9 hPa 0,0 l/m 7,8 km/h (2 Bft) S-SW 198 0 min 0,000 mm 0,0 UV-I 0 W/m 15,5 C 15,6 C 11,3 km/h (2 Bft) 96,43 %
03.08.2016 05:04 16,3 C 95 % 1016,8 hPa 0,0 l/m 7,0 km/h (2 Bft) SW 227 0 min 0,000 mm 0,0 UV-I 0 W/m 15,5 C 16,0 C 11,3 km/h (2 Bft) 100,00 %
03.08.2016 05:06 16,3 C 95 % 1016,9 hPa 0,0 l/m 7,0 km/h (2 Bft) S-SO 166 0 min 0,000 mm 0,0 UV-I 0 W/m 15,5 C 16,0 C 11,3 km/h (2 Bft) 94,23 %
03.08.2016 05:08 16,3 C 95 % 1016,9 hPa 0,0 l/m 6,9 km/h (2 Bft) S-SW 207 0 min 0,000 mm 0,0 UV-I 0 W/m 15,5 C 16,0 C 12,9 km/h (3 Bft) 100,00 %
03.08.2016 05:10 16,3 C 95 % 1016,9 hPa 0,0 l/m 8,2 km/h (2 Bft) SW 236 0 min 0,000 mm 0,0 UV-I 0 W/m 15,5 C 15,4 C 12,9 km/h (3 Bft) 100,00 %
03.08.2016 05:12 16,3 C 95 % 1016,9 hPa 0,0 l/m 7,9 km/h (2 Bft) SW 234 0 min 0,000 mm 0,0 UV-I 0 W/m 15,5 C 15,5 C 11,3 km/h (2 Bft) 98,31 %
03.08.2016 05:14 16,3 C 95 % 1017,0 hPa 0,0 l/m 7,0 km/h (2 Bft) W-SW 248 0 min 0,000 mm 0,0 UV-I 0 W/m 15,5 C 16,0 C 11,3 km/h (2 Bft) 100,00 %
03.08.2016 05:16 16,3 C 95 % 1017,0 hPa 0,0 l/m 7,5 km/h (2 Bft) W-SW 239 0 min 0,000 mm 0,0 UV-I 0 W/m 15,5 C 15,7 C 11,3 km/h (2 Bft) 100,00 %
03.08.2016 05:18 16,3 C 95 % 1017,0 hPa 0,0 l/m 7,1 km/h (2 Bft) W-SW 239 0 min 0,000 mm 0,0 UV-I 0 W/m 15,5 C 15,9 C 8,0 km/h (2 Bft) 97,73 %
03.08.2016 05:20 16,3 C 95 % 1017,0 hPa 0,0 l/m 8,2 km/h (2 Bft) SW 217 0 min 0,000 mm 0,0 UV-I 0 W/m 15,5 C 15,4 C 14,5 km/h (3 Bft) 100,00 %
03.08.2016 05:22 16,3 C 95 % 1016,9 hPa 0,0 l/m 7,1 km/h (2 Bft) W-SW 251 0 min 0,000 mm 0,0 UV-I 0 W/m 15,5 C 15,9 C 11,3 km/h (2 Bft) 98,00 %
03.08.2016 05:24 16,3 C 95 % 1017,0 hPa 0,0 l/m 8,1 km/h (2 Bft) W-SW 257 0 min 0,000 mm 0,0 UV-I 0 W/m 15,5 C 15,4 C 12,9 km/h (3 Bft) 100,00 %
03.08.2016 05:26 16,4 C 95 % 1017,0 hPa 0,0 l/m 7,8 km/h (2 Bft) SW 235 0 min 0,000 mm 0,0 UV-I 0 W/m 15,6 C 15,7 C 11,3 km/h (2 Bft) 100,00 %
03.08.2016 05:28 16,4 C 95 % 1017,0 hPa 0,0 l/m 9,4 km/h (2 Bft) W-SW 237 0 min 0,000 mm 0,0 UV-I 0 W/m 15,6 C 14,9 C 14,5 km/h (3 Bft) 100,00 %
03.08.2016 05:30 16,4 C 95 % 1017,1 hPa 0,0 l/m 8,2 km/h (2 Bft) W-SW 238 0 min 0,000 mm 0,0 UV-I 0 W/m 15,6 C 15,5 C 12,9 km/h (3 Bft) 98,11 %
03.08.2016 05:32 16,4 C 95 % 1017,0 hPa 0,0 l/m 8,2 km/h (2 Bft) W 261 0 min 0,000 mm 0,0 UV-I 0 W/m 15,6 C 15,5 C 14,5 km/h (3 Bft) 97,37 %
03.08.2016 05:34 16,4 C 95 % 1017,0 hPa 0,0 l/m 7,4 km/h (2 Bft) W 264 0 min 0,000 mm 0,0 UV-I 0 W/m 15,6 C 15,9 C 12,9 km/h (3 Bft) 96,23 %
03.08.2016 05:36 16,5 C 95 % 1017,0 hPa 0,0 l/m 6,2 km/h (2 Bft) W 273 0 min 0,000 mm 0,0 UV-I 0 W/m 15,7 C 16,5 C 11,3 km/h (2 Bft) 95,12 %
03.08.2016 05:38 16,5 C 95 % 1017,0 hPa 0,0 l/m 4,6 km/h (1 Bft) W-SW 248 0 min 0,000 mm 0,0 UV-I 0 W/m 15,7 C 16,5 C 9,7 km/h (2 Bft) 97,87 %
03.08.2016 05:40 16,5 C 95 % 1016,9 hPa 0,0 l/m 7,7 km/h (2 Bft) SW 224 0 min 0,000 mm 0,0 UV-I 0 W/m 15,7 C 15,8 C 12,9 km/h (3 Bft) 97,92 %
03.08.2016 05:42 16,6 C 94 % 1017,0 hPa 0,0 l/m 4,9 km/h (1 Bft) SW 225 0 min 0,000 mm 0,0 UV-I 0 W/m 15,6 C 16,6 C 8,0 km/h (2 Bft) 97,37 %
03.08.2016 05:44 16,5 C 94 % 1017,0 hPa 0,0 l/m 7,2 km/h (2 Bft) SW 223 0 min 0,000 mm 0,0 UV-I 0 W/m 15,5 C 16,1 C 11,3 km/h (2 Bft) 96,23 %
03.08.2016 05:46 16,6 C 94 % 1016,9 hPa 0,0 l/m 8,4 km/h (2 Bft) W-SW 240 0 min 0,000 mm 0,0 UV-I 4 W/m 15,6 C 15,6 C 14,5 km/h (3 Bft) 98,11 %
03.08.2016 05:48 16,6 C 94 % 1016,9 hPa 0,0 l/m 7,3 km/h (2 Bft) W 267 0 min 0,000 mm 0,0 UV-I 5 W/m 15,6 C 16,1 C 11,3 km/h (2 Bft) 98,11 %
03.08.2016 05:50 16,6 C 94 % 1016,9 hPa 0,0 l/m 5,4 km/h (1 Bft) W-SW 242 0 min 0,000 mm 0,0 UV-I 5 W/m 15,6 C 16,6 C 9,7 km/h (2 Bft) 97,37 %
03.08.2016 05:52 16,6 C 94 % 1016,9 hPa 0,0 l/m 7,8 km/h (2 Bft) W 259 0 min 0,000 mm 0,0 UV-I 6 W/m 15,6 C 15,9 C 12,9 km/h (3 Bft) 97,87 %
03.08.2016 05:54 16,6 C 94 % 1016,9 hPa 0,0 l/m 5,2 km/h (1 Bft) S-SW 209 0 min 0,000 mm 0,0 UV-I 7 W/m 15,6 C 16,6 C 8,0 km/h (2 Bft) 95,74 %
03.08.2016 05:56 16,5 C 94 % 1016,8 hPa 0,0 l/m 4,2 km/h (1 Bft) SW 223 0 min 0,000 mm 0,0 UV-I 9 W/m 15,5 C 16,5 C 6,4 km/h (2 Bft) 98,00 %
03.08.2016 05:58 16,5 C 94 % 1016,9 hPa 0,0 l/m 4,0 km/h (1 Bft) SW 236 0 min 0,000 mm 0,0 UV-I 10 W/m 15,5 C 16,5 C 8,0 km/h (2 Bft) 96,23 %
03.08.2016 06:00 16,5 C 94 % 1016,8 hPa 0,0 l/m 4,3 km/h (1 Bft) SW 218 0 min 0,000 mm 0,0 UV-I 12 W/m 15,5 C 16,5 C 6,4 km/h (2 Bft) 94,74 %
03.08.2016 06:02 16,4 C 94 % 1016,9 hPa 0,0 l/m 3,8 km/h (1 Bft) SW 223 0 min 0,000 mm 0,0 UV-I 13 W/m 15,4 C 16,4 C 6,4 km/h (2 Bft) 95,74 %
03.08.2016 06:04 16,4 C 94 % 1016,8 hPa 0,0 l/m 5,0 km/h (1 Bft) S-SW 207 0 min 0,000 mm 0,0 UV-I 16 W/m 15,4 C 16,4 C 8,0 km/h (2 Bft) 98,00 %
03.08.2016 06:06 16,4 C 94 % 1016,8 hPa 0,0 l/m 6,1 km/h (2 Bft) S-SW 202 0 min 0,000 mm 0,0 UV-I 20 W/m 15,4 C 16,4 C 8,0 km/h (2 Bft) 100,00 %
03.08.2016 06:08 16,4 C 94 % 1016,8 hPa 0,0 l/m 5,4 km/h (1 Bft) S-SW 193 0 min 0,000 mm 0,0 UV-I 22 W/m 15,4 C 16,4 C 8,0 km/h (2 Bft) 97,87 %
03.08.2016 06:10 16,4 C 94 % 1016,8 hPa 0,0 l/m 4,1 km/h (1 Bft) SW 215 0 min 0,000 mm 0,0 UV-I 25 W/m 15,4 C 16,4 C 6,4 km/h (2 Bft) 100,00 %
03.08.2016 06:12 16,4 C 94 % 1016,9 hPa 0,0 l/m 5,1 km/h (1 Bft) SW 227 0 min 0,000 mm 0,0 UV-I 25 W/m 15,4 C 16,4 C 6,4 km/h (2 Bft) 100,00 %
03.08.2016 06:14 16,4 C 94 % 1017,0 hPa 0,0 l/m 5,4 km/h (1 Bft) S-SW 211 0 min 0,000 mm 0,0 UV-I 25 W/m 15,4 C 16,4 C 8,0 km/h (2 Bft) 98,11 %
03.08.2016 06:16 16,4 C 94 % 1017,0 hPa 0,0 l/m 3,4 km/h (1 Bft) SW 232 0 min 0,000 mm 0,0 UV-I 23 W/m 15,4 C 16,4 C 4,8 km/h (1 Bft) 100,00 %
03.08.2016 06:18 16,4 C 95 % 1017,0 hPa 0,0 l/m 4,5 km/h (1 Bft) W-SW 256 0 min 0,000 mm 0,0 UV-I 23 W/m 15,6 C 16,4 C 6,4 km/h (2 Bft) 100,00 %
03.08.2016 06:20 16,4 C 95 % 1017,1 hPa 0,0 l/m 4,4 km/h (1 Bft) W-SW 254 0 min 0,000 mm 0,0 UV-I 24 W/m 15,6 C 16,4 C 6,4 km/h (2 Bft) 100,00 %
03.08.2016 06:22 16,4 C 95 % 1017,1 hPa 0,0 l/m 4,5 km/h (1 Bft) W 276 0 min 0,000 mm 0,0 UV-I 25 W/m 15,6 C 16,4 C 6,4 km/h (2 Bft) 100,00 %
03.08.2016 06:24 16,4 C 95 % 1017,1 hPa 0,0 l/m 4,7 km/h (1 Bft) W 265 0 min 0,000 mm 0,0 UV-I 29 W/m 15,6 C 16,4 C 6,4 km/h (2 Bft) 100,00 %
03.08.2016 06:26 16,4 C 95 % 1017,1 hPa 0,0 l/m 4,5 km/h (1 Bft) W 269 0 min 0,000 mm 0,0 UV-I 32 W/m 15,6 C 16,4 C 6,4 km/h (2 Bft) 100,00 %
03.08.2016 06:28 16,4 C 95 % 1017,1 hPa 0,0 l/m 4,7 km/h (1 Bft) W-SW 255 0 min 0,000 mm 0,0 UV-I 33 W/m 15,6 C 16,4 C 6,4 km/h (2 Bft) 100,00 %
03.08.2016 06:30 16,4 C 95 % 1017,1 hPa 0,0 l/m 5,3 km/h (1 Bft) W-SW 245 0 min 0,000 mm 0,0 UV-I 33 W/m 15,6 C 16,4 C 8,0 km/h (2 Bft) 98,04 %
03.08.2016 06:32 16,5 C 95 % 1017,1 hPa 0,0 l/m 6,4 km/h (2 Bft) SW 232 0 min 0,000 mm 0,0 UV-I 33 W/m 15,7 C 16,5 C 12,9 km/h (3 Bft) 100,00 %
03.08.2016 06:34 16,5 C 95 % 1017,0 hPa 0,0 l/m 5,1 km/h (1 Bft) W-SW 255 0 min 0,000 mm 0,0 UV-I 40 W/m 15,7 C 16,5 C 8,0 km/h (2 Bft) 100,00 %
03.08.2016 06:36 16,6 C 95 % 1017,0 hPa 0,0 l/m 6,0 km/h (2 Bft) W-SW 238 0 min 0,000 mm 0,0 UV-I 49 W/m 15,8 C 16,6 C 8,0 km/h (2 Bft) 100,00 %
03.08.2016 06:38 16,6 C 95 % 1017,0 hPa 0,0 l/m 6,0 km/h (2 Bft) SW 229 0 min 0,000 mm 0,0 UV-I 53 W/m 15,8 C 16,6 C 8,0 km/h (2 Bft) 100,00 %
03.08.2016 06:40 16,6 C 95 % 1017,0 hPa 0,0 l/m 4,9 km/h (1 Bft) SW 227 0 min 0,000 mm 0,0 UV-I 49 W/m 15,8 C 16,6 C 6,4 km/h (2 Bft) 100,00 %
03.08.2016 06:42 16,6 C 95 % 1017,0 hPa 0,0 l/m 5,6 km/h (1 Bft) SW 234 0 min 0,000 mm 0,0 UV-I 41 W/m 15,8 C 16,6 C 8,0 km/h (2 Bft) 100,00 %
03.08.2016 06:44 16,6 C 95 % 1017,0 hPa 0,0 l/m 3,7 km/h (1 Bft) S-SW 212 0 min 0,000 mm 0,0 UV-I 35 W/m 15,8 C 16,6 C 8,0 km/h (2 Bft) 100,00 %
03.08.2016 06:46 16,6 C 94 % 1017,0 hPa 0,0 l/m 4,6 km/h (1 Bft) SW 232 0 min 0,000 mm 0,0 UV-I 30 W/m 15,6 C 16,6 C 8,0 km/h (2 Bft) 100,00 %
03.08.2016 06:48 16,6 C 94 % 1017,0 hPa 0,0 l/m 4,0 km/h (1 Bft) S-SW 211 0 min 0,000 mm 0,0 UV-I 28 W/m 15,6 C 16,6 C 6,4 km/h (2 Bft) 98,00 %
03.08.2016 06:50 16,6 C 94 % 1017,1 hPa 0,0 l/m 5,9 km/h (2 Bft) W-SW 238 0 min 0,000 mm 0,0 UV-I 26 W/m 15,6 C 16,6 C 8,0 km/h (2 Bft) 100,00 %
03.08.2016 06:52 16,6 C 94 % 1017,0 hPa 0,0 l/m 5,5 km/h (1 Bft) SW 232 0 min 0,000 mm 0,0 UV-I 25 W/m 15,6 C 16,6 C 8,0 km/h (2 Bft) 100,00 %
03.08.2016 06:54 16,6 C 94 % 1017,1 hPa 0,0 l/m 4,5 km/h (1 Bft) W-SW 240 0 min 0,000 mm 0,0 UV-I 28 W/m 15,6 C 16,6 C 8,0 km/h (2 Bft) 100,00 %
03.08.2016 06:56 16,6 C 95 % 1017,1 hPa 0,0 l/m 4,7 km/h (1 Bft) SW 232 0 min 0,000 mm 0,0 UV-I 33 W/m 15,8 C 16,6 C 6,4 km/h (2 Bft) 98,11 %
03.08.2016 06:58 16,7 C 95 % 1017,1 hPa 0,0 l/m 5,3 km/h (1 Bft) W-SW 238 0 min 0,000 mm 0,0 UV-I 39 W/m 15,9 C 16,7 C 6,4 km/h (2 Bft) 97,37 %
03.08.2016 07:00 16,7 C 95 % 1017,1 hPa 0,0 l/m 3,8 km/h (1 Bft) W-SW 240 0 min 0,025 mm 0,0 UV-I 44 W/m 15,9 C 16,7 C 6,4 km/h (2 Bft) 98,11 %
03.08.2016 07:02 16,7 C 94 % 1017,1 hPa 0,0 l/m 4,2 km/h (1 Bft) SW 230 0 min 0,000 mm 0,0 UV-I 48 W/m 15,7 C 16,7 C 6,4 km/h (2 Bft) 100,00 %
03.08.2016 07:04 16,6 C 94 % 1017,1 hPa 0,0 l/m 3,1 km/h (1 Bft) SW 230 0 min 0,000 mm 0,0 UV-I 52 W/m 15,6 C 16,6 C 6,4 km/h (2 Bft) 100,00 %
03.08.2016 07:06 16,7 C 94 % 1017,1 hPa 0,0 l/m 4,5 km/h (1 Bft) S-SW 207 0 min 0,000 mm 0,0 UV-I 56 W/m 15,7 C 16,7 C 6,4 km/h (2 Bft) 95,74 %
03.08.2016 07:08 16,7 C 94 % 1017,0 hPa 0,0 l/m 5,4 km/h (1 Bft) S-SW 200 0 min 0,000 mm 0,0 UV-I 60 W/m 15,7 C 16,7 C 8,0 km/h (2 Bft) 100,00 %
03.08.2016 07:10 16,7 C 95 % 1017,0 hPa 0,0 l/m 7,8 km/h (2 Bft) S 188 0 min 0,000 mm 0,0 UV-I 64 W/m 15,9 C 16,0 C 11,3 km/h (2 Bft) 100,00 %
03.08.2016 07:12 16,8 C 95 % 1017,0 hPa 0,0 l/m 7,1 km/h (2 Bft) S-SW 206 0 min 0,000 mm 0,0 UV-I 67 W/m 16,0 C 16,4 C 12,9 km/h (3 Bft) 100,00 %
03.08.2016 07:14 16,8 C 94 % 1017,0 hPa 0,0 l/m 7,1 km/h (2 Bft) S 177 0 min 0,000 mm 0,0 UV-I 64 W/m 15,8 C 16,4 C 9,7 km/h (2 Bft) 100,00 %
03.08.2016 07:16 16,8 C 94 % 1017,0 hPa 0,0 l/m 7,1 km/h (2 Bft) S 187 0 min 0,000 mm 0,0 UV-I 64 W/m 15,8 C 16,4 C 9,7 km/h (2 Bft) 97,87 %
03.08.2016 07:18 16,8 C 94 % 1017,0 hPa 0,0 l/m 4,8 km/h (1 Bft) SW 229 0 min 0,000 mm 0,0 UV-I 66 W/m 15,8 C 16,8 C 9,7 km/h (2 Bft) 100,00 %
03.08.2016 07:20 16,9 C 94 % 1017,0 hPa 0,0 l/m 4,2 km/h (1 Bft) SW 232 0 min 0,000 mm 0,0 UV-I 67 W/m 15,9 C 16,9 C 6,4 km/h (2 Bft) 100,00 %
03.08.2016 07:22 16,9 C 94 % 1017,0 hPa 0,0 l/m 4,8 km/h (1 Bft) W-SW 250 0 min 0,000 mm 0,0 UV-I 67 W/m 15,9 C 16,9 C 6,4 km/h (2 Bft) 100,00 %
03.08.2016 07:24 16,9 C 94 % 1017,0 hPa 0,0 l/m 4,8 km/h (1 Bft) SW 234 0 min 0,000 mm 0,0 UV-I 69 W/m 15,9 C 16,9 C 9,7 km/h (2 Bft) 98,00 %
03.08.2016 07:26 16,9 C 94 % 1017,0 hPa 0,0 l/m 5,9 km/h (2 Bft) W-SW 244 0 min 0,000 mm 0,0 UV-I 74 W/m 15,9 C 16,9 C 11,3 km/h (2 Bft) 97,87 %
03.08.2016 07:28 17,0 C 94 % 1017,0 hPa 0,0 l/m 6,3 km/h (2 Bft) SW 228 0 min 0,000 mm 0,0 UV-I 79 W/m 16,0 C 17,0 C 9,7 km/h (2 Bft) 97,56 %
03.08.2016 07:30 17,1 C 94 % 1017,0 hPa 0,0 l/m 2,9 km/h (1 Bft) SW 228 0 min 0,000 mm 0,0 UV-I 85 W/m 16,1 C 17,1 C 4,8 km/h (1 Bft) 98,11 %
03.08.2016 07:32 17,1 C 93 % 1017,0 hPa 0,0 l/m 3,8 km/h (1 Bft) SW 233 0 min 0,000 mm 0,0 UV-I 82 W/m 16,0 C 17,1 C 4,8 km/h (1 Bft) 97,87 %
03.08.2016 07:34 17,1 C 94 % 1017,0 hPa 0,0 l/m 4,2 km/h (1 Bft) SW 223 0 min 0,000 mm 0,0 UV-I 78 W/m 16,1 C 17,1 C 6,4 km/h (2 Bft) 97,37 %
03.08.2016 07:36 17,2 C 94 % 1017,0 hPa 0,0 l/m 4,8 km/h (1 Bft) W-SW 254 0 min 0,000 mm 0,0 UV-I 84 W/m 16,2 C 17,2 C 8,0 km/h (2 Bft) 98,00 %
03.08.2016 07:38 17,2 C 93 % 1017,0 hPa 0,0 l/m 6,0 km/h (2 Bft) W-SW 246 0 min 0,000 mm 0,0 UV-I 99 W/m 16,1 C 17,2 C 8,0 km/h (2 Bft) 98,11 %
03.08.2016 07:40 17,2 C 93 % 1017,0 hPa 0,0 l/m 7,8 km/h (2 Bft) W-SW 248 0 min 0,000 mm 0,0 UV-I 112 W/m 16,1 C 16,5 C 11,3 km/h (2 Bft) 97,44 %
03.08.2016 07:42 17,2 C 92 % 1017,0 hPa 0,0 l/m 5,4 km/h (1 Bft) W 267 0 min 0,000 mm 0,0 UV-I 118 W/m 15,9 C 17,2 C 11,3 km/h (2 Bft) 97,37 %
03.08.2016 07:44 17,3 C 92 % 1017,0 hPa 0,0 l/m 6,3 km/h (2 Bft) W-SW 254 0 min 0,000 mm 0,0 UV-I 121 W/m 16,0 C 17,3 C 11,3 km/h (2 Bft) 95,45 %
03.08.2016 07:46 17,3 C 92 % 1017,0 hPa 0,0 l/m 6,8 km/h (2 Bft) W-SW 252 0 min 0,000 mm 0,0 UV-I 114 W/m 16,0 C 17,1 C 11,3 km/h (2 Bft) 95,16 %
03.08.2016 07:48 17,3 C 92 % 1017,0 hPa 0,0 l/m 5,4 km/h (1 Bft) W-SW 247 0 min 0,000 mm 0,0 UV-I 106 W/m 16,0 C 17,3 C 11,3 km/h (2 Bft) 97,87 %
03.08.2016 07:50 17,4 C 91 % 1017,0 hPa 0,0 l/m 4,4 km/h (1 Bft) W 261 0 min 0,000 mm 0,0 UV-I 105 W/m 15,9 C 17,4 C 9,7 km/h (2 Bft) 98,00 %
03.08.2016 07:52 17,4 C 91 % 1017,0 hPa 0,0 l/m 5,3 km/h (1 Bft) W-SW 255 0 min 0,000 mm 0,0 UV-I 105 W/m 15,9 C 17,4 C 6,4 km/h (2 Bft) 97,56 %
03.08.2016 07:54 17,4 C 91 % 1017,0 hPa 0,0 l/m 3,1 km/h (1 Bft) W 259 0 min 0,000 mm 0,0 UV-I 105 W/m 15,9 C 17,4 C 4,8 km/h (1 Bft) 98,00 %
03.08.2016 07:56 17,4 C 91 % 1017,0 hPa 0,0 l/m 4,8 km/h (1 Bft) W-SW 251 0 min 0,000 mm 0,0 UV-I 107 W/m 15,9 C 17,4 C 8,0 km/h (2 Bft) 98,00 %
03.08.2016 07:58 17,5 C 92 % 1016,9 hPa 0,0 l/m 3,1 km/h (1 Bft) W-SW 251 0 min 0,000 mm 0,0 UV-I 109 W/m 16,2 C 17,5 C 4,8 km/h (1 Bft) 97,37 %
03.08.2016 08:00 17,6 C 92 % 1016,9 hPa 0,0 l/m 5,5 km/h (1 Bft) W 263 0 min 0,051 mm 0,0 UV-I 107 W/m 16,3 C 17,6 C 9,7 km/h (2 Bft) 94,34 %
03.08.2016 08:02 17,6 C 91 % 1016,9 hPa 0,0 l/m 4,5 km/h (1 Bft) W-SW 257 0 min 0,000 mm 0,0 UV-I 107 W/m 16,1 C 17,6 C 9,7 km/h (2 Bft) 100,00 %
03.08.2016 08:04 17,6 C 92 % 1016,9 hPa 0,0 l/m 2,2 km/h (1 Bft) W-SW 257 0 min 0,000 mm 0,0 UV-I 109 W/m 16,3 C 17,6 C 3,2 km/h (1 Bft) 95,74 %
03.08.2016 08:06 17,6 C 91 % 1016,9 hPa 0,0 l/m 5,0 km/h (1 Bft) W 272 0 min 0,000 mm 0,5 UV-I 113 W/m 16,1 C 17,6 C 9,7 km/h (2 Bft) 100,00 %
03.08.2016 08:08 17,6 C 91 % 1016,9 hPa 0,0 l/m 2,9 km/h (1 Bft) W 263 0 min 0,000 mm 0,5 UV-I 116 W/m 16,1 C 17,6 C 6,4 km/h (2 Bft) 97,87 %
03.08.2016 08:10 17,7 C 91 % 1016,8 hPa 0,0 l/m 3,8 km/h (1 Bft) SW 222 0 min 0,000 mm 0,6 UV-I 125 W/m 16,2 C 17,7 C 6,4 km/h (2 Bft) 100,00 %
03.08.2016 08:12 17,7 C 91 % 1016,7 hPa 0,0 l/m 3,0 km/h (1 Bft) W-SW 258 0 min 0,000 mm 0,6 UV-I 134 W/m 16,2 C 17,7 C 4,8 km/h (1 Bft) 96,00 %
03.08.2016 08:14 17,7 C 90 % 1016,7 hPa 0,0 l/m 3,9 km/h (1 Bft) S-SW 211 0 min 0,000 mm 0,7 UV-I 140 W/m 16,0 C 17,7 C 6,4 km/h (2 Bft) 95,74 %
03.08.2016 08:16 17,8 C 91 % 1016,7 hPa 0,0 l/m 5,4 km/h (1 Bft) W 266 0 min 0,000 mm 0,7 UV-I 150 W/m 16,3 C 17,8 C 9,7 km/h (2 Bft) 100,00 %
03.08.2016 08:18 17,8 C 90 % 1016,7 hPa 0,0 l/m 3,4 km/h (1 Bft) W 266 0 min 0,000 mm 0,8 UV-I 165 W/m 16,1 C 17,8 C 4,8 km/h (1 Bft) 100,00 %
03.08.2016 08:20 17,9 C 91 % 1016,6 hPa 0,0 l/m 3,5 km/h (1 Bft) SW 221 0 min 0,000 mm 0,8 UV-I 160 W/m 16,4 C 17,9 C 4,8 km/h (1 Bft) 100,00 %
03.08.2016 08:22 17,9 C 91 % 1016,6 hPa 0,0 l/m 3,2 km/h (1 Bft) W-SW 250 0 min 0,000 mm 0,8 UV-I 175 W/m 16,4 C 17,9 C 8,0 km/h (2 Bft) 100,00 %
03.08.2016 08:24 17,9 C 90 % 1016,6 hPa 0,0 l/m 4,9 km/h (1 Bft) W 272 0 min 0,000 mm 0,8 UV-I 188 W/m 16,2 C 17,9 C 8,0 km/h (2 Bft) 100,00 %
03.08.2016 08:26 18,0 C 90 % 1016,6 hPa 0,0 l/m 5,2 km/h (1 Bft) W 265 0 min 0,000 mm 0,9 UV-I 181 W/m 16,3 C 18,0 C 9,7 km/h (2 Bft) 100,00 %
03.08.2016 08:28 17,9 C 88 % 1016,6 hPa 0,0 l/m 7,7 km/h (2 Bft) S-SW 213 0 min 0,000 mm 0,9 UV-I 152 W/m 15,9 C 17,3 C 12,9 km/h (3 Bft) 100,00 %
03.08.2016 08:30 18,0 C 89 % 1016,6 hPa 0,0 l/m 6,4 km/h (2 Bft) W-SW 253 2 min 0,000 mm 1,0 UV-I 247 W/m 16,2 C 18,0 C 11,3 km/h (2 Bft) 100,00 %
03.08.2016 08:32 18,2 C 90 % 1016,6 hPa 0,0 l/m 5,9 km/h (2 Bft) W-SW 255 2 min 0,000 mm 1,3 UV-I 368 W/m 16,5 C 18,2 C 11,3 km/h (2 Bft) 100,00 %
03.08.2016 08:34 18,3 C 88 % 1016,6 hPa 0,0 l/m 8,2 km/h (2 Bft) W-SW 255 2 min 0,000 mm 1,3 UV-I 435 W/m 16,3 C 17,5 C 12,9 km/h (3 Bft) 98,00 %
03.08.2016 08:36 18,4 C 89 % 1016,6 hPa 0,0 l/m 4,8 km/h (1 Bft) W 261 2 min 0,000 mm 1,3 UV-I 414 W/m 16,6 C 18,4 C 6,4 km/h (2 Bft) 100,00 %
03.08.2016 08:38 18,6 C 88 % 1016,5 hPa 0,0 l/m 5,4 km/h (1 Bft) W-SW 246 2 min 0,000 mm 1,3 UV-I 298 W/m 16,6 C 18,6 C 11,3 km/h (2 Bft) 97,87 %
03.08.2016 08:40 18,7 C 87 % 1016,5 hPa 0,0 l/m 5,7 km/h (1 Bft) W-SW 244 2 min 0,000 mm 1,3 UV-I 273 W/m 16,5 C 18,7 C 8,0 km/h (2 Bft) 100,00 %
03.08.2016 08:42 18,8 C 87 % 1016,5 hPa 0,0 l/m 4,1 km/h (1 Bft) S 186 2 min 0,000 mm 1,5 UV-I 401 W/m 16,6 C 18,8 C 9,7 km/h (2 Bft) 100,00 %
03.08.2016 08:44 18,9 C 86 % 1016,5 hPa 0,0 l/m 7,1 km/h (2 Bft) W 266 2 min 0,000 mm 1,5 UV-I 449 W/m 16,5 C 18,6 C 12,9 km/h (3 Bft) 100,00 %
03.08.2016 08:46 19,0 C 85 % 1016,4 hPa 0,0 l/m 5,3 km/h (1 Bft) S-SW 203 2 min 0,000 mm 1,4 UV-I 334 W/m 16,4 C 19,0 C 9,7 km/h (2 Bft) 100,00 %
03.08.2016 08:48 18,9 C 84 % 1016,4 hPa 0,0 l/m 10,5 km/h (2 Bft) SW 236 2 min 0,000 mm 1,3 UV-I 268 W/m 16,1 C 17,3 C 14,5 km/h (3 Bft) 100,00 %
03.08.2016 08:50 18,8 C 85 % 1016,4 hPa 0,0 l/m 7,8 km/h (2 Bft) S-SW 194 0 min 0,000 mm 1,3 UV-I 151 W/m 16,2 C 18,2 C 12,9 km/h (3 Bft) 95,71 %
03.08.2016 08:52 18,8 C 86 % 1016,4 hPa 0,0 l/m 7,7 km/h (2 Bft) SW 221 0 min 0,000 mm 1,3 UV-I 153 W/m 16,4 C 18,2 C 11,3 km/h (2 Bft) 100,00 %
03.08.2016 08:54 18,7 C 86 % 1016,4 hPa 0,0 l/m 5,6 km/h (1 Bft) SW 224 0 min 0,000 mm 1,4 UV-I 167 W/m 16,3 C 18,7 C 9,7 km/h (2 Bft) 100,00 %
03.08.2016 08:56 18,7 C 86 % 1016,4 hPa 0,0 l/m 6,1 km/h (2 Bft) S-SW 211 2 min 0,000 mm 1,8 UV-I 358 W/m 16,3 C 18,7 C 11,3 km/h (2 Bft) 97,56 %
03.08.2016 08:58 18,9 C 87 % 1016,4 hPa 0,0 l/m 6,3 km/h (2 Bft) W 262 2 min 0,000 mm 1,8 UV-I 346 W/m 16,7 C 18,9 C 11,3 km/h (2 Bft) 98,11 %
03.08.2016 09:00 19,0 C 85 % 1016,4 hPa 0,0 l/m 6,8 km/h (2 Bft) SW 223 2 min 0,153 mm 1,8 UV-I 336 W/m 16,4 C 18,8 C 12,9 km/h (3 Bft) 100,00 %
03.08.2016 09:02 19,1 C 85 % 1016,4 hPa 0,0 l/m 7,1 km/h (2 Bft) W-SW 248 2 min 0,000 mm 1,9 UV-I 357 W/m 16,5 C 18,8 C 11,3 km/h (2 Bft) 100,00 %
03.08.2016 09:04 19,3 C 86 % 1016,3 hPa 0,0 l/m 7,9 km/h (2 Bft) W-SW 253 2 min 0,000 mm 1,9 UV-I 354 W/m 16,9 C 18,7 C 12,9 km/h (3 Bft) 96,23 %
03.08.2016 09:06 19,4 C 84 % 1016,3 hPa 0,0 l/m 6,8 km/h (2 Bft) W 260 2 min 0,000 mm 2,0 UV-I 345 W/m 16,6 C 19,2 C 11,3 km/h (2 Bft) 100,00 %
03.08.2016 09:08 19,5 C 84 % 1016,3 hPa 0,0 l/m 7,6 km/h (2 Bft) W-SW 250 2 min 0,000 mm 2,0 UV-I 337 W/m 16,7 C 19,0 C 11,3 km/h (2 Bft) 98,11 %
03.08.2016 09:10 19,7 C 86 % 1016,3 hPa 0,0 l/m 7,6 km/h (2 Bft) W-SW 252 2 min 0,000 mm 2,1 UV-I 333 W/m 17,3 C 19,2 C 12,9 km/h (3 Bft) 100,00 %
03.08.2016 09:12 19,9 C 81 % 1016,3 hPa 0,0 l/m 7,1 km/h (2 Bft) W-SW 240 2 min 0,000 mm 2,1 UV-I 349 W/m 16,5 C 19,6 C 12,9 km/h (3 Bft) 100,00 %
03.08.2016 09:14 20,0 C 80 % 1016,3 hPa 0,0 l/m 2,9 km/h (1 Bft) W-SW 239 2 min 0,000 mm 2,2 UV-I 371 W/m 16,4 C 20,0 C 6,4 km/h (2 Bft) 100,00 %
03.08.2016 09:16 20,0 C 82 % 1016,3 hPa 0,0 l/m 5,7 km/h (1 Bft) W 277 2 min 0,000 mm 2,2 UV-I 390 W/m 16,8 C 20,0 C 9,7 km/h (2 Bft) 100,00 %
03.08.2016 09:18 20,0 C 81 % 1016,3 hPa 0,0 l/m 4,7 km/h (1 Bft) W-SW 239 2 min 0,000 mm 2,2 UV-I 393 W/m 16,6 C 20,0 C 9,7 km/h (2 Bft) 97,87 %
03.08.2016 09:20 20,1 C 81 % 1016,3 hPa 0,0 l/m 9,1 km/h (2 Bft) SW 223 2 min 0,000 mm 2,2 UV-I 374 W/m 16,7 C 19,1 C 17,7 km/h (3 Bft) 100,00 %
03.08.2016 09:22 20,1 C 78 % 1016,3 hPa 0,0 l/m 8,7 km/h (2 Bft) SW 227 2 min 0,000 mm 2,4 UV-I 421 W/m 16,1 C 19,2 C 16,1 km/h (3 Bft) 100,00 %
03.08.2016 09:24 20,1 C 79 % 1016,4 hPa 0,0 l/m 8,6 km/h (2 Bft) W-SW 254 2 min 0,000 mm 2,4 UV-I 436 W/m 16,3 C 19,2 C 14,5 km/h (3 Bft) 97,56 %
03.08.2016 09:26 20,1 C 76 % 1016,4 hPa 0,0 l/m 11,3 km/h (2 Bft) SW 225 2 min 0,000 mm 2,3 UV-I 413 W/m 15,7 C 18,3 C 17,7 km/h (3 Bft) 100,00 %
03.08.2016 09:28 20,1 C 76 % 1016,3 hPa 0,0 l/m 8,2 km/h (2 Bft) W-SW 255 2 min 0,000 mm 2,5 UV-I 482 W/m 15,7 C 19,4 C 16,1 km/h (3 Bft) 100,00 %
03.08.2016 09:30 20,1 C 76 % 1016,3 hPa 0,0 l/m 11,0 km/h (2 Bft) W-SW 253 2 min 0,000 mm 2,6 UV-I 512 W/m 15,7 C 18,4 C 16,1 km/h (3 Bft) 98,00 %
03.08.2016 09:32 20,2 C 77 % 1016,3 hPa 0,0 l/m 9,0 km/h (2 Bft) W-SW 258 2 min 0,000 mm 2,6 UV-I 527 W/m 16,0 C 19,2 C 17,7 km/h (3 Bft) 92,00 %
03.08.2016 09:34 20,2 C 76 % 1016,3 hPa 0,0 l/m 8,9 km/h (2 Bft) W 263 2 min 0,000 mm 2,7 UV-I 538 W/m 15,8 C 19,2 C 16,1 km/h (3 Bft) 96,77 %
03.08.2016 09:36 20,3 C 75 % 1016,2 hPa 0,0 l/m 8,0 km/h (2 Bft) W-SW 240 2 min 0,000 mm 2,8 UV-I 550 W/m 15,7 C 19,7 C 12,9 km/h (3 Bft) 98,08 %
03.08.2016 09:38 20,3 C 76 % 1016,2 hPa 0,0 l/m 3,6 km/h (1 Bft) W-SW 252 2 min 0,000 mm 2,6 UV-I 537 W/m 15,9 C 20,3 C 11,3 km/h (2 Bft) 97,44 %
03.08.2016 09:40 20,2 C 76 % 1016,3 hPa 0,0 l/m 7,1 km/h (2 Bft) W-NW 284 2 min 0,000 mm 2,9 UV-I 499 W/m 15,8 C 19,9 C 11,3 km/h (2 Bft) 98,21 %
03.08.2016 09:42 20,2 C 76 % 1016,2 hPa 0,0 l/m 3,4 km/h (1 Bft) W-NW 295 2 min 0,000 mm 2,9 UV-I 565 W/m 15,8 C 20,2 C 6,4 km/h (2 Bft) 96,00 %
03.08.2016 09:44 20,2 C 77 % 1016,2 hPa 0,0 l/m 2,9 km/h (1 Bft) SW 216 2 min 0,000 mm 3,0 UV-I 564 W/m 16,0 C 20,2 C 6,4 km/h (2 Bft) 89,47 %
03.08.2016 09:46 20,3 C 76 % 1016,2 hPa 0,0 l/m 8,9 km/h (2 Bft) S-SW 193 2 min 0,000 mm 3,0 UV-I 565 W/m 15,9 C 19,3 C 14,5 km/h (3 Bft) 97,87 %
03.08.2016 09:48 20,3 C 76 % 1016,2 hPa 0,0 l/m 6,0 km/h (2 Bft) W 274 2 min 0,000 mm 3,1 UV-I 572 W/m 15,9 C 20,3 C 11,3 km/h (2 Bft) 97,30 %
03.08.2016 09:50 20,3 C 74 % 1016,2 hPa 0,0 l/m 4,4 km/h (1 Bft) W-NW 289 2 min 0,000 mm 3,1 UV-I 577 W/m 15,5 C 20,3 C 9,7 km/h (2 Bft) 98,21 %
03.08.2016 09:52 20,4 C 76 % 1016,2 hPa 0,0 l/m 5,4 km/h (1 Bft) SW 219 2 min 0,000 mm 3,2 UV-I 580 W/m 16,0 C 20,4 C 9,7 km/h (2 Bft) 97,62 %
03.08.2016 09:54 20,6 C 76 % 1016,2 hPa 0,0 l/m 6,4 km/h (2 Bft) S-SW 199 2 min 0,000 mm 3,3 UV-I 587 W/m 16,2 C 20,6 C 11,3 km/h (2 Bft) 96,43 %
03.08.2016 09:56 20,7 C 78 % 1016,2 hPa 0,0 l/m 5,7 km/h (1 Bft) SW 223 2 min 0,000 mm 3,3 UV-I 597 W/m 16,7 C 20,7 C 9,7 km/h (2 Bft) 97,56 %
03.08.2016 09:58 20,7 C 74 % 1016,1 hPa 0,0 l/m 3,7 km/h (1 Bft) W 262 2 min 0,000 mm 3,4 UV-I 606 W/m 15,9 C 20,7 C 4,8 km/h (1 Bft) 98,00 %
03.08.2016 10:00 20,7 C 76 % 1016,1 hPa 0,0 l/m 2,9 km/h (1 Bft) W-SW 257 2 min 0,304 mm 3,4 UV-I 599 W/m 16,3 C 20,7 C 6,4 km/h (2 Bft) 97,73 %
03.08.2016 10:02 20,6 C 75 % 1016,1 hPa 0,0 l/m 3,4 km/h (1 Bft) SW 222 2 min 0,000 mm 3,4 UV-I 588 W/m 16,0 C 20,6 C 6,4 km/h (2 Bft) 96,00 %
03.08.2016 10:04 20,7 C 77 % 1016,1 hPa 0,0 l/m 3,6 km/h (1 Bft) SW 232 2 min 0,000 mm 3,4 UV-I 587 W/m 16,5 C 20,7 C 6,4 km/h (2 Bft) 98,00 %
03.08.2016 10:06 20,7 C 73 % 1016,1 hPa 0,0 l/m 3,6 km/h (1 Bft) SW 224 2 min 0,000 mm 3,6 UV-I 614 W/m 15,7 C 20,7 C 8,0 km/h (2 Bft) 100,00 %
03.08.2016 10:08 20,8 C 73 % 1016,1 hPa 0,0 l/m 5,3 km/h (1 Bft) W-SW 242 2 min 0,000 mm 3,7 UV-I 626 W/m 15,8 C 20,8 C 9,7 km/h (2 Bft) 100,00 %
03.08.2016 10:10 20,8 C 74 % 1016,0 hPa 0,0 l/m 7,1 km/h (2 Bft) S 191 2 min 0,000 mm 3,7 UV-I 631 W/m 16,0 C 20,5 C 11,3 km/h (2 Bft) 98,11 %
03.08.2016 10:12 20,8 C 73 % 1016,0 hPa 0,0 l/m 9,2 km/h (2 Bft) SW 224 2 min 0,000 mm 3,8 UV-I 641 W/m 15,8 C 19,8 C 16,1 km/h (3 Bft) 100,00 %
03.08.2016 10:14 20,7 C 71 % 1015,9 hPa 0,0 l/m 3,8 km/h (1 Bft) SW 236 2 min 0,000 mm 3,8 UV-I 641 W/m 15,2 C 20,7 C 6,4 km/h (2 Bft) 100,00 %
03.08.2016 10:16 20,7 C 73 % 1015,9 hPa 0,0 l/m 0,5 km/h (0 Bft) SW 236 2 min 0,000 mm 3,9 UV-I 638 W/m 15,7 C 20,7 C 3,2 km/h (1 Bft) 100,00 %
03.08.2016 10:18 20,8 C 76 % 1015,9 hPa 0,0 l/m 3,5 km/h (1 Bft) SW 233 2 min 0,000 mm 3,9 UV-I 645 W/m 16,4 C 20,8 C 6,4 km/h (2 Bft) 97,22 %
03.08.2016 10:20 21,0 C 72 % 1015,9 hPa 0,0 l/m 5,5 km/h (1 Bft) S-SW 197 2 min 0,000 mm 4,0 UV-I 647 W/m 15,8 C 21,0 C 9,7 km/h (2 Bft) 100,00 %
03.08.2016 10:22 21,1 C 74 % 1015,9 hPa 0,0 l/m 6,6 km/h (2 Bft) S-SW 196 2 min 0,000 mm 4,0 UV-I 646 W/m 16,3 C 21,0 C 11,3 km/h (2 Bft) 100,00 %
03.08.2016 10:24 21,1 C 73 % 1015,9 hPa 0,0 l/m 7,5 km/h (2 Bft) W-SW 240 2 min 0,000 mm 4,0 UV-I 654 W/m 16,1 C 20,7 C 11,3 km/h (2 Bft) 100,00 %
03.08.2016 10:26 21,1 C 72 % 1015,8 hPa 0,0 l/m 4,0 km/h (1 Bft) W 281 2 min 0,000 mm 4,1 UV-I 655 W/m 15,8 C 21,1 C 9,7 km/h (2 Bft) 98,11 %
03.08.2016 10:28 21,2 C 70 % 1015,9 hPa 0,0 l/m 1,9 km/h (1 Bft) S-SO 162 2 min 0,000 mm 4,2 UV-I 658 W/m 15,5 C 21,2 C 4,8 km/h (1 Bft) 100,00 %
03.08.2016 10:30 21,1 C 72 % 1015,8 hPa 0,0 l/m 5,2 km/h (1 Bft) SW 221 2 min 0,000 mm 4,2 UV-I 654 W/m 15,8 C 21,1 C 8,0 km/h (2 Bft) 97,87 %
03.08.2016 10:32 21,3 C 71 % 1015,8 hPa 0,0 l/m 5,0 km/h (1 Bft) W-SW 243 2 min 0,000 mm 4,2 UV-I 652 W/m 15,8 C 21,3 C 6,4 km/h (2 Bft) 100,00 %
03.08.2016 10:34 21,3 C 71 % 1015,8 hPa 0,0 l/m 8,1 km/h (2 Bft) S-SW 202 2 min 0,000 mm 4,3 UV-I 655 W/m 15,8 C 20,7 C 12,9 km/h (3 Bft) 100,00 %
03.08.2016 10:36 21,4 C 72 % 1015,8 hPa 0,0 l/m 6,2 km/h (2 Bft) S 186 2 min 0,000 mm 4,3 UV-I 660 W/m 16,1 C 21,4 C 12,9 km/h (3 Bft) 100,00 %
03.08.2016 10:38 21,4 C 69 % 1015,8 hPa 0,0 l/m 5,7 km/h (1 Bft) S 182 2 min 0,000 mm 4,3 UV-I 660 W/m 15,5 C 21,4 C 9,7 km/h (2 Bft) 100,00 %
03.08.2016 10:40 21,5 C 70 % 1015,8 hPa 0,0 l/m 7,1 km/h (2 Bft) SW 236 2 min 0,000 mm 4,4 UV-I 660 W/m 15,8 C 21,2 C 12,9 km/h (3 Bft) 100,00 %
03.08.2016 10:42 21,5 C 72 % 1015,9 hPa 0,0 l/m 7,7 km/h (2 Bft) W 260 2 min 0,000 mm 4,5 UV-I 675 W/m 16,2 C 21,0 C 12,9 km/h (3 Bft) 100,00 %
03.08.2016 10:44 21,4 C 69 % 1015,9 hPa 0,0 l/m 6,6 km/h (2 Bft) SW 225 2 min 0,000 mm 4,6 UV-I 686 W/m 15,5 C 21,3 C 11,3 km/h (2 Bft) 100,00 %
03.08.2016 10:46 21,3 C 67 % 1015,9 hPa 0,0 l/m 2,1 km/h (1 Bft) SO 133 2 min 0,000 mm 4,6 UV-I 692 W/m 14,9 C 21,3 C 4,8 km/h (1 Bft) 100,00 %
03.08.2016 10:48 21,3 C 69 % 1015,8 hPa 0,0 l/m 1,8 km/h (1 Bft) S-SO 155 2 min 0,000 mm 4,7 UV-I 695 W/m 15,4 C 21,3 C 3,2 km/h (1 Bft) 100,00 %
03.08.2016 10:50 21,6 C 71 % 1015,8 hPa 0,0 l/m 2,8 km/h (1 Bft) W 267 2 min 0,000 mm 4,8 UV-I 699 W/m 16,1 C 21,6 C 6,4 km/h (2 Bft) 97,22 %
03.08.2016 10:52 21,7 C 68 % 1015,8 hPa 0,0 l/m 1,9 km/h (1 Bft) W 259 2 min 0,000 mm 4,8 UV-I 712 W/m 15,5 C 21,7 C 4,8 km/h (1 Bft) 100,00 %
03.08.2016 10:54 21,7 C 66 % 1015,8 hPa 0,0 l/m 7,2 km/h (2 Bft) W-NW 284 2 min 0,000 mm 4,9 UV-I 711 W/m 15,1 C 21,4 C 14,5 km/h (3 Bft) 100,00 %
03.08.2016 10:56 21,8 C 65 % 1015,8 hPa 0,0 l/m 7,1 km/h (2 Bft) W 265 2 min 0,000 mm 5,0 UV-I 726 W/m 14,9 C 21,6 C 12,9 km/h (3 Bft) 100,00 %
03.08.2016 10:58 21,8 C 66 % 1015,8 hPa 0,0 l/m 3,5 km/h (1 Bft) SW 216 2 min 0,000 mm 5,0 UV-I 737 W/m 15,2 C 21,8 C 6,4 km/h (2 Bft) 97,22 %
03.08.2016 11:00 21,7 C 70 % 1015,8 hPa 0,0 l/m 2,9 km/h (1 Bft) W-SW 254 2 min 0,407 mm 5,1 UV-I 727 W/m 16,0 C 21,7 C 9,7 km/h (2 Bft) 100,00 %
03.08.2016 11:02 21,9 C 67 % 1015,8 hPa 0,0 l/m 7,5 km/h (2 Bft) W 274 2 min 0,000 mm 5,2 UV-I 757 W/m 15,5 C 21,5 C 11,3 km/h (2 Bft) 100,00 %
03.08.2016 11:04 21,9 C 64 % 1015,7 hPa 0,0 l/m 4,6 km/h (1 Bft) W 259 2 min 0,000 mm 5,2 UV-I 749 W/m 14,8 C 21,9 C 9,7 km/h (2 Bft) 100,00 %
03.08.2016 11:06 21,9 C 68 % 1015,7 hPa 0,0 l/m 4,7 km/h (1 Bft) W-NW 283 2 min 0,000 mm 5,2 UV-I 744 W/m 15,7 C 21,9 C 8,0 km/h (2 Bft) 98,00 %
03.08.2016 11:08 21,9 C 67 % 1015,7 hPa 0,0 l/m 3,8 km/h (1 Bft) W-NW 282 2 min 0,000 mm 5,3 UV-I 757 W/m 15,5 C 21,9 C 6,4 km/h (2 Bft) 100,00 %
03.08.2016 11:10 22,1 C 66 % 1015,7 hPa 0,0 l/m 3,4 km/h (1 Bft) W-SW 253 2 min 0,000 mm 5,4 UV-I 763 W/m 15,4 C 22,1 C 4,8 km/h (1 Bft) 100,00 %
03.08.2016 11:12 22,1 C 66 % 1015,7 hPa 0,0 l/m 6,8 km/h (2 Bft) W-SW 256 2 min 0,000 mm 5,1 UV-I 751 W/m 15,4 C 22,0 C 9,7 km/h (2 Bft) 100,00 %
03.08.2016 11:14 22,2 C 67 % 1015,7 hPa 0,0 l/m 3,3 km/h (1 Bft) W 263 2 min 0,000 mm 5,3 UV-I 743 W/m 15,8 C 22,2 C 6,4 km/h (2 Bft) 100,00 %
03.08.2016 11:16 22,1 C 64 % 1015,7 hPa 0,0 l/m 2,3 km/h (1 Bft) W 263 2 min 0,000 mm 5,3 UV-I 757 W/m 15,0 C 22,1 C 3,2 km/h (1 Bft) 100,00 %
03.08.2016 11:18 22,0 C 64 % 1015,7 hPa 0,0 l/m 1,0 km/h (0 Bft) N-NW 340 2 min 0,000 mm 5,4 UV-I 750 W/m 14,9 C 22,0 C 3,2 km/h (1 Bft) 100,00 %
03.08.2016 11:20 22,2 C 67 % 1015,6 hPa 0,0 l/m 2,3 km/h (1 Bft) N-NW 329 2 min 0,000 mm 5,4 UV-I 740 W/m 15,8 C 22,2 C 4,8 km/h (1 Bft) 100,00 %
03.08.2016 11:22 22,4 C 65 % 1015,6 hPa 0,0 l/m 1,9 km/h (1 Bft) W 271 2 min 0,000 mm 5,2 UV-I 697 W/m 15,5 C 22,4 C 4,8 km/h (1 Bft) 100,00 %
03.08.2016 11:24 22,6 C 68 % 1015,6 hPa 0,0 l/m 2,4 km/h (1 Bft) W-NW 302 2 min 0,000 mm 5,4 UV-I 732 W/m 16,4 C 22,6 C 4,8 km/h (1 Bft) 100,00 %
03.08.2016 11:26 22,8 C 67 % 1015,6 hPa 0,0 l/m 1,9 km/h (1 Bft) S 173 2 min 0,000 mm 5,4 UV-I 731 W/m 16,3 C 22,8 C 6,4 km/h (2 Bft) 97,87 %
03.08.2016 11:28 22,8 C 66 % 1015,6 hPa 0,0 l/m 4,6 km/h (1 Bft) W 271 2 min 0,000 mm 5,3 UV-I 696 W/m 16,1 C 22,8 C 9,7 km/h (2 Bft) 95,74 %
03.08.2016 11:30 22,8 C 64 % 1015,6 hPa 0,0 l/m 3,8 km/h (1 Bft) W 270 2 min 0,000 mm 5,1 UV-I 692 W/m 15,6 C 22,8 C 8,0 km/h (2 Bft) 98,00 %
03.08.2016 11:32 22,9 C 68 % 1015,6 hPa 0,0 l/m 5,1 km/h (1 Bft) W 263 2 min 0,000 mm 5,3 UV-I 703 W/m 16,7 C 22,9 C 12,9 km/h (3 Bft) 96,00 %
03.08.2016 11:34 22,9 C 64 % 1015,6 hPa 0,0 l/m 6,3 km/h (2 Bft) W-SW 240 2 min 0,000 mm 5,4 UV-I 724 W/m 15,7 C 22,9 C 11,3 km/h (2 Bft) 97,44 %
03.08.2016 11:36 22,9 C 64 % 1015,6 hPa 0,0 l/m 6,9 km/h (2 Bft) SW 219 2 min 0,000 mm 5,4 UV-I 719 W/m 15,7 C 22,7 C 12,9 km/h (3 Bft) 98,11 %
03.08.2016 11:38 22,8 C 66 % 1015,6 hPa 0,0 l/m 4,2 km/h (1 Bft) NW 321 2 min 0,000 mm 5,3 UV-I 698 W/m 16,1 C 22,8 C 9,7 km/h (2 Bft) 97,37 %
03.08.2016 11:40 22,8 C 64 % 1015,5 hPa 0,0 l/m 4,2 km/h (1 Bft) W-SW 257 2 min 0,000 mm 5,4 UV-I 712 W/m 15,6 C 22,8 C 11,3 km/h (2 Bft) 98,11 %
03.08.2016 11:42 22,9 C 67 % 1015,6 hPa 0,0 l/m 3,0 km/h (1 Bft) NW 323 2 min 0,000 mm 5,4 UV-I 701 W/m 16,4 C 22,9 C 6,4 km/h (2 Bft) 98,00 %
03.08.2016 11:44 22,9 C 61 % 1015,5 hPa 0,0 l/m 3,2 km/h (1 Bft) NW 313 2 min 0,000 mm 5,6 UV-I 749 W/m 15,0 C 22,9 C 8,0 km/h (2 Bft) 93,62 %
03.08.2016 11:46 22,8 C 65 % 1015,4 hPa 0,0 l/m 2,5 km/h (1 Bft) W 281 2 min 0,000 mm 5,4 UV-I 707 W/m 15,9 C 22,8 C 6,4 km/h (2 Bft) 97,56 %
03.08.2016 11:48 22,9 C 67 % 1015,5 hPa 0,0 l/m 4,5 km/h (1 Bft) S-SW 211 2 min 0,000 mm 5,3 UV-I 692 W/m 16,4 C 22,9 C 8,0 km/h (2 Bft) 96,43 %
03.08.2016 11:50 23,1 C 65 % 1015,4 hPa 0,0 l/m 7,6 km/h (2 Bft) SW 218 2 min 0,000 mm 5,6 UV-I 724 W/m 16,2 C 22,7 C 12,9 km/h (3 Bft) 97,37 %
03.08.2016 11:52 23,0 C 63 % 1015,5 hPa 0,0 l/m 3,5 km/h (1 Bft) S-SW 207 2 min 0,000 mm 5,7 UV-I 739 W/m 15,6 C 23,0 C 6,4 km/h (2 Bft) 97,56 %
03.08.2016 11:54 22,8 C 61 % 1015,4 hPa 0,0 l/m 4,3 km/h (1 Bft) S-SO 165 2 min 0,000 mm 5,5 UV-I 716 W/m 14,9 C 22,8 C 8,0 km/h (2 Bft) 98,11 %
03.08.2016 11:56 22,8 C 68 % 1015,4 hPa 0,0 l/m 3,8 km/h (1 Bft) W 279 2 min 0,000 mm 5,5 UV-I 702 W/m 16,6 C 22,8 C 4,8 km/h (1 Bft) 98,00 %
03.08.2016 11:58 22,9 C 62 % 1015,3 hPa 0,0 l/m 1,8 km/h (1 Bft) W 280 2 min 0,000 mm 5,7 UV-I 733 W/m 15,2 C 22,9 C 3,2 km/h (1 Bft) 97,37 %
03.08.2016 12:00 22,9 C 63 % 1015,3 hPa 0,0 l/m 1,0 km/h (0 Bft) W 280 2 min 0,457 mm 5,9 UV-I 763 W/m 15,5 C 22,9 C 3,2 km/h (1 Bft) 100,00 %
03.08.2016 12:02 23,2 C 66 % 1015,3 hPa 0,0 l/m 4,1 km/h (1 Bft) W-NW 282 2 min 0,000 mm 6,1 UV-I 790 W/m 16,5 C 23,2 C 11,3 km/h (2 Bft) 100,00 %
03.08.2016 12:04 23,3 C 64 % 1015,3 hPa 0,0 l/m 2,8 km/h (1 Bft) W-SW 246 2 min 0,000 mm 6,2 UV-I 787 W/m 16,1 C 23,3 C 9,7 km/h (2 Bft) 100,00 %
03.08.2016 12:06 23,4 C 62 % 1015,3 hPa 0,0 l/m 6,0 km/h (2 Bft) W-SW 248 2 min 0,000 mm 5,9 UV-I 767 W/m 15,7 C 23,4 C 11,3 km/h (2 Bft) 97,73 %
03.08.2016 12:08 23,6 C 62 % 1015,3 hPa 0,0 l/m 3,7 km/h (1 Bft) W-SW 257 2 min 0,000 mm 5,5 UV-I 670 W/m 15,9 C 23,6 C 11,3 km/h (2 Bft) 97,87 %
03.08.2016 12:10 23,6 C 61 % 1015,3 hPa 0,0 l/m 7,1 km/h (2 Bft) W 265 2 min 0,000 mm 5,5 UV-I 679 W/m 15,6 C 23,4 C 11,3 km/h (2 Bft) 100,00 %
03.08.2016 12:12 23,6 C 60 % 1015,3 hPa 0,0 l/m 5,9 km/h (2 Bft) W-SW 258 2 min 0,000 mm 5,5 UV-I 690 W/m 15,4 C 23,6 C 16,1 km/h (3 Bft) 100,00 %
03.08.2016 12:14 23,7 C 64 % 1015,3 hPa 0,0 l/m 8,0 km/h (2 Bft) W 267 2 min 0,000 mm 5,9 UV-I 746 W/m 16,5 C 23,2 C 12,9 km/h (3 Bft) 100,00 %
03.08.2016 12:16 23,9 C 62 % 1015,3 hPa 0,0 l/m 9,7 km/h (2 Bft) W-SW 245 2 min 0,000 mm 5,7 UV-I 714 W/m 16,2 C 23,0 C 14,5 km/h (3 Bft) 97,56 %
03.08.2016 12:18 23,8 C 61 % 1015,3 hPa 0,0 l/m 9,0 km/h (2 Bft) SW 229 2 min 0,000 mm 6,0 UV-I 760 W/m 15,8 C 23,1 C 14,5 km/h (3 Bft) 100,00 %
03.08.2016 12:20 23,8 C 61 % 1015,3 hPa 0,0 l/m 9,9 km/h (2 Bft) S 179 2 min 0,000 mm 6,1 UV-I 774 W/m 15,8 C 22,9 C 16,1 km/h (3 Bft) 100,00 %
03.08.2016 12:22 23,7 C 60 % 1015,2 hPa 0,0 l/m 10,4 km/h (2 Bft) S-SW 203 2 min 0,000 mm 6,2 UV-I 784 W/m 15,5 C 22,6 C 14,5 km/h (3 Bft) 100,00 %
03.08.2016 12:24 23,7 C 60 % 1015,2 hPa 0,0 l/m 7,1 km/h (2 Bft) W-SW 238 2 min 0,000 mm 6,2 UV-I 774 W/m 15,5 C 23,5 C 16,1 km/h (3 Bft) 100,00 %
03.08.2016 12:26 23,7 C 60 % 1015,2 hPa 0,0 l/m 4,6 km/h (1 Bft) W-SW 248 2 min 0,000 mm 5,9 UV-I 702 W/m 15,5 C 23,7 C 12,9 km/h (3 Bft) 97,37 %
03.08.2016 12:28 23,7 C 60 % 1015,2 hPa 0,0 l/m 8,4 km/h (2 Bft) W-SW 248 2 min 0,000 mm 6,1 UV-I 698 W/m 15,5 C 23,1 C 12,9 km/h (3 Bft) 100,00 %
03.08.2016 12:30 23,8 C 61 % 1015,2 hPa 0,0 l/m 8,7 km/h (2 Bft) W-SW 241 2 min 0,000 mm 6,5 UV-I 807 W/m 15,8 C 23,2 C 16,1 km/h (3 Bft) 100,00 %
03.08.2016 12:32 23,9 C 62 % 1015,1 hPa 0,0 l/m 4,9 km/h (1 Bft) W-SW 256 2 min 0,000 mm 6,5 UV-I 835 W/m 16,2 C 23,9 C 11,3 km/h (2 Bft) 100,00 %
03.08.2016 12:34 24,1 C 60 % 1015,1 hPa 0,0 l/m 6,8 km/h (2 Bft) S 180 2 min 0,000 mm 6,3 UV-I 805 W/m 15,8 C 24,0 C 14,5 km/h (3 Bft) 100,00 %
03.08.2016 12:36 24,0 C 60 % 1015,1 hPa 0,0 l/m 11,1 km/h (2 Bft) W 264 2 min 0,000 mm 5,2 UV-I 704 W/m 15,7 C 22,8 C 17,7 km/h (3 Bft) 97,56 %
03.08.2016 12:38 23,8 C 57 % 1015,0 hPa 0,0 l/m 5,2 km/h (1 Bft) S 188 2 min 0,000 mm 4,6 UV-I 512 W/m 14,8 C 23,8 C 12,9 km/h (3 Bft) 100,00 %
03.08.2016 12:40 23,7 C 62 % 1015,1 hPa 0,0 l/m 3,4 km/h (1 Bft) W 265 0 min 0,000 mm 4,1 UV-I 403 W/m 16,0 C 23,7 C 6,4 km/h (2 Bft) 100,00 %
03.08.2016 12:42 23,6 C 60 % 1015,0 hPa 0,0 l/m 2,7 km/h (1 Bft) SW 221 2 min 0,000 mm 4,7 UV-I 487 W/m 15,4 C 23,6 C 4,8 km/h (1 Bft) 100,00 %
03.08.2016 12:44 23,8 C 61 % 1015,0 hPa 0,0 l/m 5,3 km/h (1 Bft) W 277 2 min 0,000 mm 4,7 UV-I 511 W/m 15,8 C 23,8 C 9,7 km/h (2 Bft) 100,00 %
03.08.2016 12:46 23,9 C 61 % 1015,0 hPa 0,0 l/m 9,4 km/h (2 Bft) SW 236 2 min 0,000 mm 5,9 UV-I 681 W/m 15,9 C 23,1 C 12,9 km/h (3 Bft) 100,00 %
03.08.2016 12:48 24,0 C 64 % 1014,9 hPa 0,0 l/m 5,7 km/h (1 Bft) S-SW 194 2 min 0,000 mm 6,2 UV-I 753 W/m 16,8 C 24,0 C 8,0 km/h (2 Bft) 100,00 %
03.08.2016 12:50 24,2 C 60 % 1014,9 hPa 0,0 l/m 6,5 km/h (2 Bft) SW 235 2 min 0,000 mm 6,0 UV-I 716 W/m 15,9 C 24,2 C 11,3 km/h (2 Bft) 100,00 %
03.08.2016 12:52 24,3 C 60 % 1014,9 hPa 0,0 l/m 5,9 km/h (2 Bft) W-SW 246 2 min 0,000 mm 6,3 UV-I 783 W/m 16,0 C 24,3 C 11,3 km/h (2 Bft) 97,87 %
03.08.2016 12:54 24,4 C 58 % 1014,8 hPa 0,0 l/m 9,3 km/h (2 Bft) SO 137 2 min 0,000 mm 6,2 UV-I 738 W/m 15,6 C 23,7 C 17,7 km/h (3 Bft) 100,00 %
03.08.2016 12:56 24,2 C 57 % 1014,8 hPa 0,0 l/m 7,5 km/h (2 Bft) S-SO 167 2 min 0,000 mm 6,0 UV-I 718 W/m 15,1 C 23,9 C 14,5 km/h (3 Bft) 100,00 %
03.08.2016 12:58 24,2 C 61 % 1014,8 hPa 0,0 l/m 7,4 km/h (2 Bft) S 173 2 min 0,000 mm 6,2 UV-I 754 W/m 16,2 C 23,9 C 12,9 km/h (3 Bft) 100,00 %
03.08.2016 13:00 24,2 C 59 % 1014,8 hPa 0,0 l/m 6,4 km/h (2 Bft) SW 232 2 min 0,483 mm 6,3 UV-I 779 W/m 15,7 C 24,2 C 11,3 km/h (2 Bft) 98,11 %
03.08.2016 13:02 24,3 C 60 % 1014,8 hPa 0,0 l/m 7,5 km/h (2 Bft) W-SW 253 2 min 0,000 mm 6,6 UV-I 815 W/m 16,0 C 24,0 C 11,3 km/h (2 Bft) 100,00 %
03.08.2016 13:04 24,3 C 56 % 1014,8 hPa 0,0 l/m 7,4 km/h (2 Bft) W-SW 242 2 min 0,000 mm 6,6 UV-I 815 W/m 14,9 C 24,0 C 12,9 km/h (3 Bft) 100,00 %
03.08.2016 13:06 24,3 C 57 % 1014,8 hPa 0,0 l/m 1,9 km/h (1 Bft) S-SW 207 2 min 0,000 mm 6,7 UV-I 840 W/m 15,2 C 24,3 C 6,4 km/h (2 Bft) 100,00 %
03.08.2016 13:08 24,3 C 57 % 1014,7 hPa 0,0 l/m 4,3 km/h (1 Bft) SO 144 2 min 0,000 mm 6,4 UV-I 847 W/m 15,2 C 24,3 C 8,0 km/h (2 Bft) 100,00 %
03.08.2016 13:10 24,3 C 59 % 1014,7 hPa 0,0 l/m 5,3 km/h (1 Bft) W 279 2 min 0,000 mm 6,4 UV-I 796 W/m 15,8 C 24,3 C 11,3 km/h (2 Bft) 100,00 %
03.08.2016 13:12 24,4 C 57 % 1014,7 hPa 0,0 l/m 8,9 km/h (2 Bft) W 273 2 min 0,000 mm 5,6 UV-I 819 W/m 15,3 C 23,7 C 16,1 km/h (3 Bft) 100,00 %
03.08.2016 13:14 24,4 C 57 % 1014,7 hPa 0,0 l/m 6,8 km/h (2 Bft) W-SW 248 2 min 0,000 mm 4,0 UV-I 792 W/m 15,3 C 24,3 C 12,9 km/h (3 Bft) 100,00 %
03.08.2016 13:16 24,2 C 57 % 1014,6 hPa 0,0 l/m 6,7 km/h (2 Bft) W 259 2 min 0,000 mm 4,2 UV-I 503 W/m 15,1 C 24,1 C 11,3 km/h (2 Bft) 100,00 %
03.08.2016 13:18 24,2 C 58 % 1014,6 hPa 0,0 l/m 6,3 km/h (2 Bft) NW 315 0 min 0,000 mm 5,4 UV-I 460 W/m 15,4 C 24,2 C 9,7 km/h (2 Bft) 100,00 %
03.08.2016 13:20 24,3 C 63 % 1014,5 hPa 0,0 l/m 2,6 km/h (1 Bft) W 274 2 min 0,000 mm 6,3 UV-I 671 W/m 16,8 C 24,3 C 6,4 km/h (2 Bft) 98,00 %
03.08.2016 13:22 24,5 C 58 % 1014,5 hPa 0,0 l/m 4,2 km/h (1 Bft) W 260 2 min 0,000 mm 6,5 UV-I 796 W/m 15,7 C 24,5 C 9,7 km/h (2 Bft) 97,87 %
03.08.2016 13:24 24,7 C 61 % 1014,5 hPa 0,0 l/m 3,7 km/h (1 Bft) SW 224 2 min 0,000 mm 6,2 UV-I 784 W/m 16,7 C 24,7 C 9,7 km/h (2 Bft) 91,67 %
03.08.2016 13:26 24,9 C 60 % 1014,5 hPa 0,0 l/m 4,7 km/h (1 Bft) SW 236 2 min 0,000 mm 6,3 UV-I 771 W/m 16,6 C 24,9 C 9,7 km/h (2 Bft) 97,26 %
03.08.2016 13:28 24,9 C 58 % 1014,5 hPa 0,0 l/m 6,3 km/h (2 Bft) SW 236 2 min 0,000 mm 6,3 UV-I 751 W/m 16,1 C 24,9 C 11,3 km/h (2 Bft) 97,44 %
03.08.2016 13:30 24,9 C 57 % 1014,4 hPa 0,0 l/m 9,0 km/h (2 Bft) W-NW 285 2 min 0,000 mm 6,1 UV-I 718 W/m 15,8 C 24,3 C 14,5 km/h (3 Bft) 96,15 %
03.08.2016 13:32 24,9 C 57 % 1014,4 hPa 0,0 l/m 7,8 km/h (2 Bft) W 259 2 min 0,000 mm 6,0 UV-I 715 W/m 15,8 C 24,5 C 12,9 km/h (3 Bft) 97,44 %
03.08.2016 13:34 24,9 C 57 % 1014,5 hPa 0,0 l/m 8,8 km/h (2 Bft) W 273 2 min 0,000 mm 6,2 UV-I 752 W/m 15,8 C 24,3 C 12,9 km/h (3 Bft) 98,18 %
03.08.2016 13:36 24,9 C 57 % 1014,5 hPa 0,0 l/m 5,6 km/h (1 Bft) W-SW 254 2 min 0,000 mm 6,1 UV-I 732 W/m 15,8 C 24,9 C 12,9 km/h (3 Bft) 94,87 %
03.08.2016 13:38 24,9 C 56 % 1014,4 hPa 0,0 l/m 5,9 km/h (2 Bft) W 271 2 min 0,000 mm 6,3 UV-I 772 W/m 15,5 C 24,9 C 11,3 km/h (2 Bft) 94,00 %
03.08.2016 13:40 24,9 C 56 % 1014,4 hPa 0,0 l/m 4,6 km/h (1 Bft) NW 304 2 min 0,000 mm 6,4 UV-I 798 W/m 15,5 C 24,9 C 9,7 km/h (2 Bft) 98,00 %
03.08.2016 13:42 25,0 C 58 % 1014,4 hPa 0,0 l/m 1,7 km/h (1 Bft) W-NW 287 2 min 0,000 mm 6,3 UV-I 793 W/m 16,1 C 25,0 C 4,8 km/h (1 Bft) 95,74 %
03.08.2016 13:44 25,1 C 57 % 1014,3 hPa 0,0 l/m 3,8 km/h (1 Bft) W 266 2 min 0,000 mm 6,3 UV-I 773 W/m 16,0 C 25,1 C 9,7 km/h (2 Bft) 97,73 %
03.08.2016 13:46 25,0 C 58 % 1014,4 hPa 0,0 l/m 3,7 km/h (1 Bft) W-NW 299 2 min 0,000 mm 6,3 UV-I 753 W/m 16,1 C 25,0 C 8,0 km/h (2 Bft) 94,34 %
03.08.2016 13:48 25,1 C 56 % 1014,3 hPa 0,0 l/m 2,3 km/h (1 Bft) O-SO 108 2 min 0,000 mm 6,3 UV-I 785 W/m 15,7 C 25,1 C 6,4 km/h (2 Bft) 97,56 %
03.08.2016 13:50 25,3 C 61 % 1014,3 hPa 0,0 l/m 2,9 km/h (1 Bft) N 11 2 min 0,000 mm 6,2 UV-I 764 W/m 17,2 C 25,3 C 4,8 km/h (1 Bft) 98,00 %
03.08.2016 13:52 25,4 C 55 % 1014,3 hPa 0,0 l/m 4,0 km/h (1 Bft) W 259 2 min 0,000 mm 5,6 UV-I 782 W/m 15,7 C 25,4 C 8,0 km/h (2 Bft) 97,87 %
03.08.2016 13:54 25,2 C 57 % 1014,2 hPa 0,0 l/m 2,5 km/h (1 Bft) N-NO 15 0 min 0,000 mm 3,9 UV-I 299 W/m 16,1 C 25,2 C 6,4 km/h (2 Bft) 97,87 %
03.08.2016 13:56 25,2 C 56 % 1014,2 hPa 0,0 l/m 5,5 km/h (1 Bft) N 350 2 min 0,000 mm 6,1 UV-I 556 W/m 15,8 C 25,2 C 8,0 km/h (2 Bft) 100,00 %
03.08.2016 13:58 25,3 C 57 % 1014,3 hPa 0,0 l/m 6,0 km/h (2 Bft) W 265 2 min 0,000 mm 6,0 UV-I 756 W/m 16,2 C 25,3 C 12,9 km/h (3 Bft) 100,00 %
03.08.2016 14:00 25,2 C 55 % 1014,2 hPa 0,0 l/m 3,5 km/h (1 Bft) W-SW 239 2 min 0,482 mm 6,0 UV-I 758 W/m 15,5 C 25,2 C 11,3 km/h (2 Bft) 100,00 %
03.08.2016 14:02 25,1 C 56 % 1014,1 hPa 0,0 l/m 2,5 km/h (1 Bft) W-SW 240 2 min 0,000 mm 5,9 UV-I 750 W/m 15,7 C 25,1 C 4,8 km/h (1 Bft) 97,56 %
03.08.2016 14:04 25,0 C 58 % 1014,1 hPa 0,0 l/m 1,3 km/h (1 Bft) W-SW 243 2 min 0,000 mm 5,8 UV-I 736 W/m 16,1 C 25,0 C 3,2 km/h (1 Bft) 98,11 %
03.08.2016 14:06 25,2 C 60 % 1014,1 hPa 0,0 l/m 1,6 km/h (1 Bft) N-NW 337 2 min 0,000 mm 5,9 UV-I 742 W/m 16,9 C 25,2 C 3,2 km/h (1 Bft) 97,22 %
03.08.2016 14:08 25,4 C 56 % 1014,0 hPa 0,0 l/m 1,5 km/h (1 Bft) NW 319 2 min 0,000 mm 5,3 UV-I 713 W/m 16,0 C 25,4 C 3,2 km/h (1 Bft) 100,00 %
03.08.2016 14:10 25,6 C 56 % 1014,0 hPa 0,0 l/m 4,8 km/h (1 Bft) W-SW 247 2 min 0,000 mm 5,6 UV-I 708 W/m 16,2 C 25,6 C 6,4 km/h (2 Bft) 98,00 %
03.08.2016 14:12 25,4 C 56 % 1014,0 hPa 0,0 l/m 1,9 km/h (1 Bft) W-SW 247 2 min 0,000 mm 5,6 UV-I 712 W/m 16,0 C 25,4 C 4,8 km/h (1 Bft) 100,00 %
03.08.2016 14:14 25,4 C 56 % 1014,0 hPa 0,0 l/m 1,9 km/h (1 Bft) W-SW 245 2 min 0,000 mm 5,4 UV-I 672 W/m 16,0 C 25,4 C 3,2 km/h (1 Bft) 100,00 %
03.08.2016 14:16 25,5 C 60 % 1014,0 hPa 0,0 l/m 3,4 km/h (1 Bft) NO 43 2 min 0,000 mm 5,3 UV-I 647 W/m 17,2 C 25,5 C 11,3 km/h (2 Bft) 98,00 %
03.08.2016 14:18 25,8 C 57 % 1013,9 hPa 0,0 l/m 5,4 km/h (1 Bft) N-NO 33 2 min 0,000 mm 4,8 UV-I 662 W/m 16,6 C 25,8 C 9,7 km/h (2 Bft) 100,00 %
03.08.2016 14:20 25,9 C 57 % 1013,8 hPa 0,0 l/m 3,7 km/h (1 Bft) N-NW 341 2 min 0,000 mm 5,2 UV-I 663 W/m 16,7 C 25,9 C 6,4 km/h (2 Bft) 100,00 %
03.08.2016 14:22 26,1 C 54 % 1013,8 hPa 0,0 l/m 3,7 km/h (1 Bft) W-NW 302 2 min 0,000 mm 5,4 UV-I 676 W/m 16,0 C 26,1 C 8,0 km/h (2 Bft) 100,00 %
03.08.2016 14:24 26,0 C 54 % 1013,8 hPa 0,0 l/m 4,3 km/h (1 Bft) N-NW 335 2 min 0,000 mm 5,9 UV-I 793 W/m 16,0 C 26,0 C 8,0 km/h (2 Bft) 100,00 %
03.08.2016 14:26 26,1 C 56 % 1013,8 hPa 0,0 l/m 3,3 km/h (1 Bft) NW 304 2 min 0,000 mm 5,8 UV-I 766 W/m 16,6 C 26,1 C 8,0 km/h (2 Bft) 97,56 %
03.08.2016 14:28 25,9 C 58 % 1013,8 hPa 0,0 l/m 2,6 km/h (1 Bft) N-NO 24 2 min 0,000 mm 5,9 UV-I 765 W/m 17,0 C 25,9 C 4,8 km/h (1 Bft) 100,00 %
03.08.2016 14:30 25,9 C 60 % 1013,7 hPa 0,0 l/m 4,0 km/h (1 Bft) N-NO 19 2 min 0,000 mm 5,8 UV-I 765 W/m 17,5 C 25,9 C 6,4 km/h (2 Bft) 100,00 %
03.08.2016 14:32 25,8 C 52 % 1013,7 hPa 0,0 l/m 2,4 km/h (1 Bft) N-NO 31 2 min 0,000 mm 5,8 UV-I 766 W/m 15,2 C 25,8 C 6,4 km/h (2 Bft) 100,00 %
03.08.2016 14:34 25,9 C 54 % 1013,7 hPa 0,0 l/m 2,1 km/h (1 Bft) NW 325 2 min 0,000 mm 5,8 UV-I 802 W/m 15,9 C 25,9 C 3,2 km/h (1 Bft) 97,37 %
03.08.2016 14:36 26,1 C 55 % 1013,7 hPa 0,0 l/m 4,0 km/h (1 Bft) NW 323 2 min 0,000 mm 5,9 UV-I 801 W/m 16,3 C 26,1 C 6,4 km/h (2 Bft) 100,00 %
03.08.2016 14:38 26,2 C 55 % 1013,6 hPa 0,0 l/m 3,4 km/h (1 Bft) W-NW 286 2 min 0,000 mm 5,9 UV-I 765 W/m 16,4 C 26,2 C 6,4 km/h (2 Bft) 100,00 %
03.08.2016 14:40 26,1 C 53 % 1013,6 hPa 0,0 l/m 0,9 km/h (0 Bft) W-NW 286 2 min 0,000 mm 6,0 UV-I 811 W/m 15,8 C 26,1 C 3,2 km/h (1 Bft) 100,00 %
03.08.2016 14:42 26,1 C 55 % 1013,6 hPa 0,0 l/m 7,7 km/h (2 Bft) SW 234 2 min 0,000 mm 6,1 UV-I 853 W/m 16,3 C 25,8 C 14,5 km/h (3 Bft) 100,00 %
03.08.2016 14:44 26,0 C 54 % 1013,6 hPa 0,0 l/m 1,3 km/h (1 Bft) SW 234 2 min 0,000 mm 6,1 UV-I 839 W/m 16,0 C 26,0 C 4,8 km/h (1 Bft) 100,00 %
03.08.2016 14:46 26,0 C 53 % 1013,5 hPa 0,0 l/m 1,5 km/h (1 Bft) W-SW 246 2 min 0,000 mm 5,9 UV-I 817 W/m 15,7 C 26,0 C 3,2 km/h (1 Bft) 98,00 %
03.08.2016 14:48 26,1 C 56 % 1013,5 hPa 0,0 l/m 3,2 km/h (1 Bft) W-SW 240 2 min 0,000 mm 5,8 UV-I 802 W/m 16,6 C 26,1 C 6,4 km/h (2 Bft) 100,00 %
03.08.2016 14:50 26,3 C 53 % 1013,5 hPa 0,0 l/m 7,6 km/h (2 Bft) SW 229 2 min 0,000 mm 5,8 UV-I 786 W/m 15,9 C 26,0 C 11,3 km/h (2 Bft) 98,00 %
03.08.2016 14:52 26,3 C 53 % 1013,5 hPa 0,0 l/m 8,6 km/h (2 Bft) W 273 2 min 0,000 mm 5,8 UV-I 788 W/m 15,9 C 25,8 C 14,5 km/h (3 Bft) 100,00 %
03.08.2016 14:54 26,2 C 52 % 1013,5 hPa 0,0 l/m 5,7 km/h (1 Bft) N-NW 345 2 min 0,000 mm 5,7 UV-I 794 W/m 15,6 C 26,2 C 14,5 km/h (3 Bft) 100,00 %
03.08.2016 14:56 26,4 C 56 % 1013,5 hPa 0,0 l/m 3,5 km/h (1 Bft) S-SW 200 2 min 0,000 mm 5,7 UV-I 784 W/m 16,9 C 26,4 C 9,7 km/h (2 Bft) 98,00 %
03.08.2016 14:58 26,5 C 53 % 1013,5 hPa 0,0 l/m 7,7 km/h (2 Bft) W 263 2 min 0,000 mm 5,5 UV-I 742 W/m 16,1 C 26,2 C 11,3 km/h (2 Bft) 97,56 %
03.08.2016 15:00 26,3 C 53 % 1013,4 hPa 0,0 l/m 5,1 km/h (1 Bft) S-SW 194 2 min 0,508 mm 5,1 UV-I 741 W/m 15,9 C 26,3 C 9,7 km/h (2 Bft) 100,00 %
03.08.2016 15:02 26,2 C 57 % 1013,4 hPa 0,0 l/m 3,1 km/h (1 Bft) SW 227 2 min 0,000 mm 4,8 UV-I 572 W/m 17,0 C 26,2 C 4,8 km/h (1 Bft) 97,92 %
03.08.2016 15:04 26,2 C 53 % 1013,4 hPa 0,0 l/m 2,5 km/h (1 Bft) SW 221 2 min 0,000 mm 5,2 UV-I 599 W/m 15,8 C 26,2 C 6,4 km/h (2 Bft) 100,00 %
03.08.2016 15:06 26,1 C 52 % 1013,3 hPa 0,0 l/m 2,2 km/h (1 Bft) SO 138 2 min 0,000 mm 5,2 UV-I 664 W/m 15,5 C 26,1 C 6,4 km/h (2 Bft) 100,00 %
03.08.2016 15:08 26,1 C 53 % 1013,3 hPa 0,0 l/m 3,4 km/h (1 Bft) S-SO 158 2 min 0,000 mm 5,0 UV-I 663 W/m 15,8 C 26,1 C 11,3 km/h (2 Bft) 100,00 %
03.08.2016 15:10 26,1 C 54 % 1013,3 hPa 0,0 l/m 4,0 km/h (1 Bft) O-SO 103 2 min 0,000 mm 5,1 UV-I 700 W/m 16,0 C 26,1 C 6,4 km/h (2 Bft) 100,00 %
03.08.2016 15:12 26,3 C 54 % 1013,3 hPa 0,0 l/m 1,2 km/h (1 Bft) O-SO 105 2 min 0,000 mm 5,0 UV-I 712 W/m 16,2 C 26,3 C 4,8 km/h (1 Bft) 100,00 %
03.08.2016 15:14 26,4 C 53 % 1013,3 hPa 0,0 l/m 2,5 km/h (1 Bft) N-NW 329 2 min 0,000 mm 5,1 UV-I 734 W/m 16,0 C 26,4 C 4,8 km/h (1 Bft) 100,00 %
03.08.2016 15:16 26,6 C 52 % 1013,3 hPa 0,0 l/m 4,4 km/h (1 Bft) N-NW 346 2 min 0,000 mm 5,2 UV-I 764 W/m 15,9 C 26,6 C 11,3 km/h (2 Bft) 100,00 %
03.08.2016 15:18 26,6 C 54 % 1013,3 hPa 0,0 l/m 6,1 km/h (2 Bft) W-NW 294 2 min 0,000 mm 4,9 UV-I 711 W/m 16,5 C 26,6 C 11,3 km/h (2 Bft) 98,00 %
03.08.2016 15:20 26,6 C 54 % 1013,3 hPa 0,0 l/m 6,9 km/h (2 Bft) W-SW 252 2 min 0,000 mm 4,9 UV-I 722 W/m 16,5 C 26,5 C 12,9 km/h (3 Bft) 97,87 %
03.08.2016 15:22 26,6 C 53 % 1013,3 hPa 0,0 l/m 6,2 km/h (2 Bft) W 273 2 min 0,000 mm 5,0 UV-I 729 W/m 16,2 C 26,6 C 12,9 km/h (3 Bft) 98,00 %
03.08.2016 15:24 26,4 C 53 % 1013,2 hPa 0,0 l/m 2,6 km/h (1 Bft) SW 229 2 min 0,000 mm 4,9 UV-I 702 W/m 16,0 C 26,4 C 4,8 km/h (1 Bft) 98,00 %
03.08.2016 15:26 26,3 C 51 % 1013,2 hPa 0,0 l/m 2,8 km/h (1 Bft) S-SO 168 2 min 0,000 mm 4,8 UV-I 694 W/m 15,3 C 26,3 C 6,4 km/h (2 Bft) 97,44 %
03.08.2016 15:28 26,4 C 57 % 1013,2 hPa 0,0 l/m 2,9 km/h (1 Bft) W-SW 254 2 min 0,000 mm 4,7 UV-I 698 W/m 17,2 C 26,4 C 6,4 km/h (2 Bft) 97,87 %
03.08.2016 15:30 26,5 C 53 % 1013,2 hPa 0,0 l/m 3,5 km/h (1 Bft) SW 236 2 min 0,000 mm 4,7 UV-I 699 W/m 16,1 C 26,5 C 9,7 km/h (2 Bft) 96,15 %
03.08.2016 15:32 26,4 C 51 % 1013,2 hPa 0,0 l/m 0,6 km/h (0 Bft) SW 236 2 min 0,000 mm 4,6 UV-I 684 W/m 15,4 C 26,4 C 1,6 km/h (1 Bft) 97,92 %
03.08.2016 15:34 26,6 C 57 % 1013,1 hPa 0,0 l/m 1,4 km/h (1 Bft) W-SW 255 2 min 0,000 mm 4,6 UV-I 685 W/m 17,4 C 26,6 C 3,2 km/h (1 Bft) 95,74 %
03.08.2016 15:36 26,7 C 53 % 1013,1 hPa 0,0 l/m 2,1 km/h (1 Bft) SW 232 2 min 0,000 mm 4,4 UV-I 669 W/m 16,3 C 26,7 C 4,8 km/h (1 Bft) 97,37 %
03.08.2016 15:38 26,8 C 52 % 1013,1 hPa 0,0 l/m 3,8 km/h (1 Bft) W 268 2 min 0,000 mm 4,4 UV-I 646 W/m 16,1 C 26,8 C 6,4 km/h (2 Bft) 98,11 %
03.08.2016 15:40 26,8 C 51 % 1013,1 hPa 0,0 l/m 7,5 km/h (2 Bft) W-SW 238 2 min 0,000 mm 4,4 UV-I 673 W/m 15,8 C 26,6 C 11,3 km/h (2 Bft) 97,56 %
03.08.2016 15:42 26,7 C 50 % 1013,1 hPa 0,0 l/m 5,7 km/h (1 Bft) W-NW 292 2 min 0,000 mm 4,4 UV-I 679 W/m 15,4 C 26,7 C 11,3 km/h (2 Bft) 98,00 %
03.08.2016 15:44 26,8 C 53 % 1013,1 hPa 0,0 l/m 2,0 km/h (1 Bft) W-NW 294 2 min 0,000 mm 4,3 UV-I 667 W/m 16,4 C 26,8 C 4,8 km/h (1 Bft) 98,11 %
03.08.2016 15:46 26,9 C 51 % 1013,0 hPa 0,0 l/m 4,8 km/h (1 Bft) S-SW 213 2 min 0,000 mm 4,4 UV-I 687 W/m 15,9 C 26,9 C 8,0 km/h (2 Bft) 97,37 %
03.08.2016 15:48 26,8 C 52 % 1013,0 hPa 0,0 l/m 8,7 km/h (2 Bft) SW 230 2 min 0,000 mm 4,2 UV-I 678 W/m 16,1 C 26,4 C 12,9 km/h (3 Bft) 94,34 %
03.08.2016 15:50 26,8 C 54 % 1013,0 hPa 0,0 l/m 6,4 km/h (2 Bft) S 191 2 min 0,000 mm 4,2 UV-I 665 W/m 16,7 C 26,8 C 17,7 km/h (3 Bft) 98,00 %
03.08.2016 15:52 26,8 C 55 % 1013,0 hPa 0,0 l/m 7,1 km/h (2 Bft) SW 227 2 min 0,000 mm 4,1 UV-I 671 W/m 17,0 C 26,7 C 16,1 km/h (3 Bft) 100,00 %
03.08.2016 15:54 26,7 C 51 % 1013,0 hPa 0,0 l/m 2,5 km/h (1 Bft) S-SW 196 2 min 0,000 mm 4,1 UV-I 670 W/m 15,7 C 26,7 C 4,8 km/h (1 Bft) 100,00 %
03.08.2016 15:56 26,8 C 53 % 1013,0 hPa 0,0 l/m 3,3 km/h (1 Bft) W-NW 282 2 min 0,000 mm 4,0 UV-I 644 W/m 16,4 C 26,8 C 9,7 km/h (2 Bft) 100,00 %
03.08.2016 15:58 27,0 C 53 % 1013,0 hPa 0,0 l/m 4,5 km/h (1 Bft) W 271 2 min 0,000 mm 3,9 UV-I 619 W/m 16,6 C 27,0 C 11,3 km/h (2 Bft) 100,00 %
03.08.2016 16:00 27,1 C 52 % 1013,0 hPa 0,0 l/m 6,7 km/h (2 Bft) W-SW 244 2 min 0,457 mm 3,9 UV-I 627 W/m 16,4 C 27,0 C 11,3 km/h (2 Bft) 98,11 %
03.08.2016 16:02 27,1 C 52 % 1012,9 hPa 0,0 l/m 4,8 km/h (1 Bft) S 189 2 min 0,000 mm 3,8 UV-I 624 W/m 16,4 C 27,1 C 9,7 km/h (2 Bft) 100,00 %
03.08.2016 16:04 27,1 C 53 % 1012,9 hPa 0,0 l/m 2,1 km/h (1 Bft) S 173 2 min 0,000 mm 3,7 UV-I 597 W/m 16,7 C 27,1 C 4,8 km/h (1 Bft) 100,00 %
03.08.2016 16:06 27,1 C 52 % 1012,9 hPa 0,0 l/m 7,3 km/h (2 Bft) S 188 2 min 0,000 mm 3,5 UV-I 565 W/m 16,4 C 26,9 C 9,7 km/h (2 Bft) 100,00 %
03.08.2016 16:08 27,0 C 52 % 1012,9 hPa 0,0 l/m 2,1 km/h (1 Bft) W-SW 255 2 min 0,000 mm 3,5 UV-I 588 W/m 16,3 C 27,0 C 4,8 km/h (1 Bft) 100,00 %
03.08.2016 16:10 27,2 C 50 % 1012,9 hPa 0,0 l/m 4,4 km/h (1 Bft) N-NW 342 2 min 0,000 mm 3,5 UV-I 612 W/m 15,9 C 27,2 C 8,0 km/h (2 Bft) 100,00 %
03.08.2016 16:12 27,2 C 50 % 1012,8 hPa 0,0 l/m 3,2 km/h (1 Bft) NW 306 2 min 0,000 mm 3,6 UV-I 606 W/m 15,9 C 27,2 C 6,4 km/h (2 Bft) 100,00 %
03.08.2016 16:14 27,3 C 52 % 1012,8 hPa 0,0 l/m 2,1 km/h (1 Bft) W-NW 294 2 min 0,000 mm 3,5 UV-I 584 W/m 16,6 C 27,3 C 4,8 km/h (1 Bft) 100,00 %
03.08.2016 16:16 27,2 C 50 % 1012,8 hPa 0,0 l/m 4,1 km/h (1 Bft) W 260 2 min 0,000 mm 3,3 UV-I 551 W/m 15,9 C 27,2 C 9,7 km/h (2 Bft) 100,00 %
03.08.2016 16:18 27,2 C 50 % 1012,8 hPa 0,0 l/m 5,6 km/h (1 Bft) S-SW 194 2 min 0,000 mm 3,4 UV-I 581 W/m 15,9 C 27,2 C 11,3 km/h (2 Bft) 100,00 %
03.08.2016 16:20 27,1 C 53 % 1012,8 hPa 0,0 l/m 4,3 km/h (1 Bft) SW 223 2 min 0,000 mm 3,5 UV-I 636 W/m 16,7 C 27,1 C 8,0 km/h (2 Bft) 98,00 %
03.08.2016 16:22 27,2 C 54 % 1012,8 hPa 0,0 l/m 4,1 km/h (1 Bft) W-SW 244 2 min 0,000 mm 3,4 UV-I 628 W/m 17,1 C 27,2 C 6,4 km/h (2 Bft) 98,11 %
03.08.2016 16:24 27,3 C 51 % 1012,8 hPa 0,0 l/m 3,8 km/h (1 Bft) W-SW 248 2 min 0,000 mm 3,3 UV-I 594 W/m 16,3 C 27,3 C 8,0 km/h (2 Bft) 100,00 %
03.08.2016 16:26 27,3 C 48 % 1012,8 hPa 0,0 l/m 5,0 km/h (1 Bft) W 260 2 min 0,000 mm 3,3 UV-I 606 W/m 15,3 C 27,3 C 9,7 km/h (2 Bft) 100,00 %
03.08.2016 16:28 27,2 C 49 % 1012,7 hPa 0,0 l/m 2,4 km/h (1 Bft) W-SW 258 2 min 0,000 mm 3,3 UV-I 604 W/m 15,5 C 27,2 C 4,8 km/h (1 Bft) 100,00 %
03.08.2016 16:30 27,1 C 50 % 1012,7 hPa 0,0 l/m 3,3 km/h (1 Bft) SW 229 2 min 0,000 mm 3,2 UV-I 604 W/m 15,8 C 27,1 C 4,8 km/h (1 Bft) 98,00 %
03.08.2016 16:32 27,1 C 55 % 1012,6 hPa 0,0 l/m 2,3 km/h (1 Bft) NW 317 2 min 0,000 mm 3,1 UV-I 591 W/m 17,3 C 27,1 C 4,8 km/h (1 Bft) 100,00 %
03.08.2016 16:34 27,4 C 53 % 1012,7 hPa 0,0 l/m 3,6 km/h (1 Bft) N-NO 12 2 min 0,000 mm 3,1 UV-I 592 W/m 17,0 C 27,4 C 4,8 km/h (1 Bft) 98,00 %
03.08.2016 16:36 27,6 C 51 % 1012,6 hPa 0,0 l/m 3,1 km/h (1 Bft) NO 40 2 min 0,000 mm 3,0 UV-I 580 W/m 16,5 C 27,6 C 4,8 km/h (1 Bft) 97,56 %
03.08.2016 16:38 27,7 C 49 % 1012,6 hPa 0,0 l/m 2,8 km/h (1 Bft) N-NO 22 2 min 0,000 mm 3,0 UV-I 576 W/m 16,0 C 27,7 C 8,0 km/h (2 Bft) 100,00 %
03.08.2016 16:40 27,8 C 48 % 1012,6 hPa 0,0 l/m 2,7 km/h (1 Bft) N 11 2 min 0,000 mm 2,9 UV-I 575 W/m 15,8 C 27,8 C 6,4 km/h (2 Bft) 100,00 %
03.08.2016 16:42 27,6 C 47 % 1012,6 hPa 0,0 l/m 2,2 km/h (1 Bft) N-NW 328 2 min 0,000 mm 2,9 UV-I 575 W/m 15,3 C 27,6 C 3,2 km/h (1 Bft) 98,11 %
03.08.2016 16:44 27,6 C 49 % 1012,6 hPa 0,0 l/m 2,2 km/h (1 Bft) N-NW 344 2 min 0,000 mm 2,8 UV-I 569 W/m 15,9 C 27,6 C 6,4 km/h (2 Bft) 100,00 %
03.08.2016 16:46 27,5 C 49 % 1012,5 hPa 0,0 l/m 1,5 km/h (1 Bft) N-NW 333 2 min 0,000 mm 2,8 UV-I 564 W/m 15,8 C 27,5 C 4,8 km/h (1 Bft) 98,18 %
03.08.2016 16:48 27,6 C 49 % 1012,5 hPa 0,0 l/m 2,9 km/h (1 Bft) N 11 2 min 0,000 mm 2,7 UV-I 557 W/m 15,9 C 27,6 C 6,4 km/h (2 Bft) 100,00 %
03.08.2016 16:50 27,6 C 49 % 1012,5 hPa 0,0 l/m 3,1 km/h (1 Bft) N 5 2 min 0,000 mm 2,7 UV-I 549 W/m 15,9 C 27,6 C 6,4 km/h (2 Bft) 97,73 %
03.08.2016 16:52 27,7 C 50 % 1012,5 hPa 0,0 l/m 3,8 km/h (1 Bft) NO 46 2 min 0,000 mm 2,6 UV-I 544 W/m 16,3 C 27,7 C 9,7 km/h (2 Bft) 100,00 %
03.08.2016 16:54 27,7 C 51 % 1012,5 hPa 0,0 l/m 4,7 km/h (1 Bft) NO 55 2 min 0,000 mm 2,6 UV-I 529 W/m 16,6 C 27,7 C 6,4 km/h (2 Bft) 100,00 %
03.08.2016 16:56 27,6 C 48 % 1012,5 hPa 0,0 l/m 1,4 km/h (1 Bft) NO 48 2 min 0,000 mm 2,5 UV-I 519 W/m 15,6 C 27,6 C 3,2 km/h (1 Bft) 100,00 %
03.08.2016 16:58 27,5 C 50 % 1012,4 hPa 0,0 l/m 2,9 km/h (1 Bft) NO 48 2 min 0,000 mm 2,4 UV-I 504 W/m 16,1 C 27,5 C 8,0 km/h (2 Bft) 97,87 %
03.08.2016 17:00 27,6 C 50 % 1012,4 hPa 0,0 l/m 5,8 km/h (2 Bft) O-NO 76 2 min 0,407 mm 2,4 UV-I 507 W/m 16,2 C 27,6 C 8,0 km/h (2 Bft) 100,00 %
03.08.2016 17:02 27,7 C 52 % 1012,4 hPa 0,0 l/m 6,0 km/h (2 Bft) O 81 2 min 0,000 mm 2,3 UV-I 510 W/m 16,9 C 27,7 C 11,3 km/h (2 Bft) 100,00 %
03.08.2016 17:04 27,7 C 49 % 1012,4 hPa 0,0 l/m 4,3 km/h (1 Bft) NO 55 2 min 0,000 mm 2,3 UV-I 486 W/m 16,0 C 27,7 C 6,4 km/h (2 Bft) 97,87 %
03.08.2016 17:06 27,7 C 54 % 1012,4 hPa 0,0 l/m 5,2 km/h (1 Bft) NO 55 2 min 0,000 mm 2,3 UV-I 503 W/m 17,5 C 27,7 C 8,0 km/h (2 Bft) 98,00 %
03.08.2016 17:08 27,7 C 53 % 1012,4 hPa 0,0 l/m 2,4 km/h (1 Bft) NO 55 2 min 0,000 mm 2,2 UV-I 484 W/m 17,2 C 27,7 C 4,8 km/h (1 Bft) 100,00 %
03.08.2016 17:10 27,8 C 51 % 1012,4 hPa 0,0 l/m 3,4 km/h (1 Bft) NO 48 2 min 0,000 mm 2,2 UV-I 484 W/m 16,7 C 27,8 C 6,4 km/h (2 Bft) 96,77 %
03.08.2016 17:12 27,8 C 49 % 1012,3 hPa 0,0 l/m 0,9 km/h (0 Bft) NO 48 2 min 0,000 mm 2,1 UV-I 473 W/m 16,1 C 27,8 C 3,2 km/h (1 Bft) 96,00 %
03.08.2016 17:14 27,8 C 52 % 1012,3 hPa 0,0 l/m 2,9 km/h (1 Bft) N-NW 335 2 min 0,000 mm 2,1 UV-I 477 W/m 17,0 C 27,8 C 4,8 km/h (1 Bft) 96,00 %
03.08.2016 17:16 27,8 C 48 % 1012,3 hPa 0,0 l/m 2,8 km/h (1 Bft) NW 304 2 min 0,000 mm 2,0 UV-I 483 W/m 15,8 C 27,8 C 4,8 km/h (1 Bft) 97,87 %
03.08.2016 17:18 27,8 C 49 % 1012,3 hPa 0,0 l/m 2,0 km/h (1 Bft) NW 304 2 min 0,000 mm 2,0 UV-I 474 W/m 16,1 C 27,8 C 4,8 km/h (1 Bft) 97,14 %
03.08.2016 17:20 27,8 C 49 % 1012,3 hPa 0,0 l/m 0,9 km/h (0 Bft) NW 310 2 min 0,000 mm 1,9 UV-I 463 W/m 16,1 C 27,8 C 1,6 km/h (1 Bft) 98,11 %
03.08.2016 17:22 27,7 C 49 % 1012,3 hPa 0,0 l/m 2,8 km/h (1 Bft) NW 315 2 min 0,000 mm 1,9 UV-I 455 W/m 16,0 C 27,7 C 8,0 km/h (2 Bft) 95,24 %
03.08.2016 17:24 27,7 C 49 % 1012,2 hPa 0,0 l/m 4,6 km/h (1 Bft) N 355 2 min 0,000 mm 1,8 UV-I 451 W/m 16,0 C 27,7 C 8,0 km/h (2 Bft) 98,00 %
03.08.2016 17:26 27,7 C 49 % 1012,3 hPa 0,0 l/m 2,3 km/h (1 Bft) NW 311 2 min 0,000 mm 1,8 UV-I 404 W/m 16,0 C 27,7 C 4,8 km/h (1 Bft) 97,56 %
03.08.2016 17:28 27,7 C 51 % 1012,2 hPa 0,0 l/m 5,6 km/h (1 Bft) NW 323 2 min 0,000 mm 1,6 UV-I 391 W/m 16,6 C 27,7 C 12,9 km/h (3 Bft) 98,11 %
03.08.2016 17:30 27,7 C 50 % 1012,2 hPa 0,0 l/m 3,5 km/h (1 Bft) N 355 2 min 0,000 mm 1,6 UV-I 393 W/m 16,3 C 27,7 C 6,4 km/h (2 Bft) 97,87 %
03.08.2016 17:32 27,8 C 51 % 1012,3 hPa 0,0 l/m 4,4 km/h (1 Bft) N 5 2 min 0,000 mm 1,6 UV-I 382 W/m 16,7 C 27,8 C 8,0 km/h (2 Bft) 95,74 %
03.08.2016 17:34 27,8 C 49 % 1012,2 hPa 0,0 l/m 3,4 km/h (1 Bft) NW 317 2 min 0,000 mm 1,4 UV-I 336 W/m 16,1 C 27,8 C 6,4 km/h (2 Bft) 96,00 %
03.08.2016 17:36 27,6 C 50 % 1012,2 hPa 0,0 l/m 1,7 km/h (1 Bft) NW 326 2 min 0,000 mm 1,4 UV-I 328 W/m 16,2 C 27,6 C 4,8 km/h (1 Bft) 97,37 %
03.08.2016 17:38 27,6 C 52 % 1012,2 hPa 0,0 l/m 4,6 km/h (1 Bft) N-NO 24 2 min 0,000 mm 1,3 UV-I 293 W/m 16,8 C 27,6 C 8,0 km/h (2 Bft) 98,11 %
03.08.2016 17:40 27,5 C 53 % 1012,2 hPa 0,0 l/m 3,9 km/h (1 Bft) NO 36 2 min 0,000 mm 1,3 UV-I 277 W/m 17,0 C 27,5 C 8,0 km/h (2 Bft) 98,11 %
03.08.2016 17:42 27,4 C 51 % 1012,2 hPa 0,0 l/m 4,3 km/h (1 Bft) NO 44 2 min 0,000 mm 1,3 UV-I 316 W/m 16,3 C 27,4 C 6,4 km/h (2 Bft) 100,00 %
03.08.2016 17:44 27,4 C 51 % 1012,2 hPa 0,0 l/m 3,9 km/h (1 Bft) N-NO 29 2 min 0,000 mm 1,3 UV-I 303 W/m 16,3 C 27,4 C 6,4 km/h (2 Bft) 97,87 %
03.08.2016 17:46 27,4 C 51 % 1012,2 hPa 0,0 l/m 2,1 km/h (1 Bft) N-NW 344 2 min 0,000 mm 1,3 UV-I 348 W/m 16,3 C 27,4 C 6,4 km/h (2 Bft) 100,00 %
03.08.2016 17:48 27,3 C 49 % 1012,2 hPa 0,0 l/m 1,0 km/h (0 Bft) N-NW 344 2 min 0,000 mm 1,3 UV-I 340 W/m 15,6 C 27,3 C 3,2 km/h (1 Bft) 98,00 %
03.08.2016 17:50 27,3 C 50 % 1012,2 hPa 0,0 l/m 1,8 km/h (1 Bft) N 349 2 min 0,000 mm 1,2 UV-I 263 W/m 15,9 C 27,3 C 4,8 km/h (1 Bft) 97,37 %
03.08.2016 17:52 27,3 C 52 % 1012,2 hPa 0,0 l/m 3,8 km/h (1 Bft) N-NO 19 0 min 0,000 mm 1,1 UV-I 232 W/m 16,6 C 27,3 C 9,7 km/h (2 Bft) 100,00 %
03.08.2016 17:54 27,3 C 50 % 1012,2 hPa 0,0 l/m 3,7 km/h (1 Bft) W-NW 291 2 min 0,000 mm 1,1 UV-I 272 W/m 15,9 C 27,3 C 6,4 km/h (2 Bft) 100,00 %
03.08.2016 17:56 27,4 C 51 % 1012,2 hPa 0,0 l/m 2,5 km/h (1 Bft) W-NW 282 2 min 0,000 mm 1,0 UV-I 271 W/m 16,3 C 27,4 C 4,8 km/h (1 Bft) 97,56 %
03.08.2016 17:58 27,3 C 51 % 1012,2 hPa 0,0 l/m 2,0 km/h (1 Bft) NW 320 2 min 0,000 mm 1,0 UV-I 245 W/m 16,3 C 27,3 C 4,8 km/h (1 Bft) 100,00 %
03.08.2016 18:00 27,2 C 52 % 1012,2 hPa 0,0 l/m 1,9 km/h (1 Bft) N-NW 327 2 min 0,000 mm 1,0 UV-I 268 W/m 16,5 C 27,2 C 4,8 km/h (1 Bft) 100,00 %
03.08.2016 18:02 27,2 C 52 % 1012,2 hPa 0,0 l/m 5,0 km/h (1 Bft) N-NW 333 2 min 0,279 mm 1,0 UV-I 269 W/m 16,5 C 27,2 C 11,3 km/h (2 Bft) 100,00 %
03.08.2016 18:04 27,1 C 52 % 1012,2 hPa 0,0 l/m 2,4 km/h (1 Bft) N-NW 345 2 min 0,000 mm 0,9 UV-I 232 W/m 16,4 C 27,1 C 4,8 km/h (1 Bft) 100,00 %
03.08.2016 18:06 27,1 C 55 % 1012,2 hPa 0,0 l/m 4,3 km/h (1 Bft) NO 34 2 min 0,000 mm 0,9 UV-I 244 W/m 17,3 C 27,1 C 6,4 km/h (2 Bft) 100,00 %
03.08.2016 18:08 27,1 C 54 % 1012,1 hPa 0,0 l/m 3,8 km/h (1 Bft) N-NO 17 2 min 0,000 mm 1,0 UV-I 316 W/m 17,0 C 27,1 C 6,4 km/h (2 Bft) 100,00 %
03.08.2016 18:10 27,2 C 56 % 1012,1 hPa 0,0 l/m 4,3 km/h (1 Bft) N-NO 16 2 min 0,000 mm 0,9 UV-I 287 W/m 17,6 C 27,2 C 6,4 km/h (2 Bft) 100,00 %
03.08.2016 18:12 27,2 C 55 % 1012,1 hPa 0,0 l/m 5,5 km/h (1 Bft) N 5 2 min 0,000 mm 0,9 UV-I 302 W/m 17,4 C 27,2 C 8,0 km/h (2 Bft) 97,87 %
03.08.2016 18:14 27,2 C 54 % 1012,2 hPa 0,0 l/m 2,7 km/h (1 Bft) N-NO 20 2 min 0,000 mm 0,9 UV-I 325 W/m 17,1 C 27,2 C 6,4 km/h (2 Bft) 100,00 %
03.08.2016 18:16 27,3 C 54 % 1012,2 hPa 0,0 l/m 3,0 km/h (1 Bft) N 5 2 min 0,000 mm 0,9 UV-I 356 W/m 17,2 C 27,3 C 6,4 km/h (2 Bft) 100,00 %
03.08.2016 18:18 27,4 C 54 % 1012,2 hPa 0,0 l/m 3,7 km/h (1 Bft) N 355 2 min 0,000 mm 0,9 UV-I 353 W/m 17,3 C 27,4 C 9,7 km/h (2 Bft) 100,00 %
03.08.2016 18:20 27,5 C 54 % 1012,1 hPa 0,0 l/m 3,6 km/h (1 Bft) N-NO 26 2 min 0,000 mm 0,9 UV-I 363 W/m 17,3 C 27,5 C 8,0 km/h (2 Bft) 100,00 %
03.08.2016 18:22 27,5 C 55 % 1012,2 hPa 0,0 l/m 5,5 km/h (1 Bft) N-NO 25 2 min 0,000 mm 0,9 UV-I 363 W/m 17,6 C 27,5 C 11,3 km/h (2 Bft) 97,56 %
03.08.2016 18:24 27,4 C 54 % 1012,1 hPa 0,0 l/m 6,2 km/h (2 Bft) N 5 2 min 0,000 mm 0,8 UV-I 343 W/m 17,3 C 27,4 C 11,3 km/h (2 Bft) 100,00 %
03.08.2016 18:26 27,4 C 54 % 1012,1 hPa 0,0 l/m 9,2 km/h (2 Bft) N-NO 28 2 min 0,000 mm 0,8 UV-I 330 W/m 17,3 C 26,9 C 12,9 km/h (3 Bft) 100,00 %
03.08.2016 18:28 27,3 C 52 % 1012,0 hPa 0,0 l/m 10,6 km/h (2 Bft) N-NO 29 2 min 0,000 mm 0,8 UV-I 327 W/m 16,6 C 26,6 C 14,5 km/h (3 Bft) 100,00 %
03.08.2016 18:30 27,2 C 52 % 1012,0 hPa 0,0 l/m 8,3 km/h (2 Bft) NO 40 2 min 0,000 mm 0,7 UV-I 319 W/m 16,5 C 26,9 C 14,5 km/h (3 Bft) 97,87 %
03.08.2016 18:32 27,1 C 53 % 1012,1 hPa 0,0 l/m 7,2 km/h (2 Bft) N-NO 13 2 min 0,000 mm 0,7 UV-I 304 W/m 16,7 C 27,0 C 12,9 km/h (3 Bft) 100,00 %
03.08.2016 18:34 27,2 C 54 % 1012,0 hPa 0,0 l/m 6,7 km/h (2 Bft) NO 40 2 min 0,000 mm 0,7 UV-I 301 W/m 17,1 C 27,1 C 9,7 km/h (2 Bft) 100,00 %
03.08.2016 18:36 27,2 C 55 % 1012,0 hPa 0,0 l/m 5,7 km/h (1 Bft) N-NO 30 2 min 0,000 mm 0,6 UV-I 294 W/m 17,4 C 27,2 C 9,7 km/h (2 Bft) 97,44 %
03.08.2016 18:38 27,1 C 54 % 1011,9 hPa 0,0 l/m 7,7 km/h (2 Bft) N-NO 26 2 min 0,000 mm 0,6 UV-I 282 W/m 17,0 C 26,9 C 12,9 km/h (3 Bft) 100,00 %
03.08.2016 18:40 27,1 C 54 % 1012,0 hPa 0,0 l/m 6,1 km/h (2 Bft) N-NO 30 2 min 0,000 mm 0,6 UV-I 275 W/m 17,0 C 27,1 C 12,9 km/h (3 Bft) 100,00 %
03.08.2016 18:42 27,0 C 53 % 1012,0 hPa 0,0 l/m 5,6 km/h (1 Bft) N-NO 13 2 min 0,000 mm 0,6 UV-I 245 W/m 16,6 C 27,0 C 9,7 km/h (2 Bft) 98,00 %
03.08.2016 18:44 26,9 C 52 % 1011,9 hPa 0,0 l/m 3,3 km/h (1 Bft) N 5 2 min 0,000 mm 0,5 UV-I 225 W/m 16,2 C 26,9 C 6,4 km/h (2 Bft) 100,00 %
03.08.2016 18:46 26,9 C 55 % 1011,9 hPa 0,0 l/m 5,1 km/h (1 Bft) O-NO 66 2 min 0,000 mm 0,5 UV-I 215 W/m 17,1 C 26,9 C 8,0 km/h (2 Bft) 100,00 %
03.08.2016 18:48 26,8 C 55 % 1011,9 hPa 0,0 l/m 5,5 km/h (1 Bft) O-NO 57 2 min 0,000 mm 0,5 UV-I 196 W/m 17,0 C 26,8 C 6,4 km/h (2 Bft) 100,00 %
03.08.2016 18:50 26,8 C 53 % 1012,0 hPa 0,0 l/m 4,7 km/h (1 Bft) O-NO 57 2 min 0,000 mm 0,4 UV-I 199 W/m 16,4 C 26,8 C 6,4 km/h (2 Bft) 97,87 %
03.08.2016 18:52 26,8 C 55 % 1012,0 hPa 0,0 l/m 5,5 km/h (1 Bft) NO 44 2 min 0,000 mm 0,0 UV-I 201 W/m 17,0 C 26,8 C 9,7 km/h (2 Bft) 100,00 %
03.08.2016 18:54 26,8 C 56 % 1011,9 hPa 0,0 l/m 4,3 km/h (1 Bft) NO 51 2 min 0,000 mm 0,0 UV-I 195 W/m 17,3 C 26,8 C 6,4 km/h (2 Bft) 100,00 %
03.08.2016 18:56 26,8 C 53 % 1011,9 hPa 0,0 l/m 4,9 km/h (1 Bft) NO 38 2 min 0,000 mm 0,0 UV-I 203 W/m 16,4 C 26,8 C 6,4 km/h (2 Bft) 100,00 %
03.08.2016 18:58 26,8 C 55 % 1012,0 hPa 0,0 l/m 5,5 km/h (1 Bft) N-NO 28 2 min 0,000 mm 0,0 UV-I 199 W/m 17,0 C 26,8 C 8,0 km/h (2 Bft) 97,87 %
03.08.2016 19:00 26,8 C 55 % 1012,0 hPa 0,0 l/m 5,7 km/h (1 Bft) NO 54 2 min 0,229 mm 0,0 UV-I 190 W/m 17,0 C 26,8 C 8,0 km/h (2 Bft) 95,12 %
03.08.2016 19:02 26,8 C 54 % 1012,0 hPa 0,0 l/m 6,8 km/h (2 Bft) NO 40 2 min 0,000 mm 0,0 UV-I 176 W/m 16,7 C 26,7 C 8,0 km/h (2 Bft) 98,15 %
03.08.2016 19:04 26,7 C 55 % 1012,0 hPa 0,0 l/m 3,6 km/h (1 Bft) N-NO 28 2 min 0,000 mm 0,0 UV-I 171 W/m 16,9 C 26,7 C 6,4 km/h (2 Bft) 98,00 %
03.08.2016 19:06 26,7 C 54 % 1012,0 hPa 0,0 l/m 3,1 km/h (1 Bft) NO 40 2 min 0,000 mm 0,0 UV-I 159 W/m 16,6 C 26,7 C 4,8 km/h (1 Bft) 97,14 %
03.08.2016 19:08 26,6 C 55 % 1012,0 hPa 0,0 l/m 4,4 km/h (1 Bft) NO 40 2 min 0,000 mm 0,0 UV-I 146 W/m 16,8 C 26,6 C 6,4 km/h (2 Bft) 98,00 %
03.08.2016 19:10 26,6 C 54 % 1012,0 hPa 0,0 l/m 3,3 km/h (1 Bft) N-NO 21 2 min 0,000 mm 0,0 UV-I 141 W/m 16,5 C 26,6 C 6,4 km/h (2 Bft) 96,23 %
03.08.2016 19:12 26,5 C 54 % 1012,0 hPa 0,0 l/m 5,4 km/h (1 Bft) N-NO 26 2 min 0,000 mm 0,0 UV-I 137 W/m 16,4 C 26,5 C 8,0 km/h (2 Bft) 97,37 %
03.08.2016 19:14 26,4 C 56 % 1012,0 hPa 0,0 l/m 4,9 km/h (1 Bft) NO 42 2 min 0,000 mm 0,0 UV-I 131 W/m 16,9 C 26,4 C 8,0 km/h (2 Bft) 98,00 %
03.08.2016 19:16 26,4 C 55 % 1012,0 hPa 0,0 l/m 5,1 km/h (1 Bft) NO 42 2 min 0,000 mm 0,0 UV-I 135 W/m 16,6 C 26,4 C 6,4 km/h (2 Bft) 95,74 %
03.08.2016 19:18 26,4 C 55 % 1012,0 hPa 0,0 l/m 2,7 km/h (1 Bft) NO 42 2 min 0,000 mm 0,0 UV-I 135 W/m 16,6 C 26,4 C 6,4 km/h (2 Bft) 98,00 %
03.08.2016 19:20 26,4 C 56 % 1012,0 hPa 0,0 l/m 3,9 km/h (1 Bft) NO 41 2 min 0,000 mm 0,0 UV-I 130 W/m 16,9 C 26,4 C 6,4 km/h (2 Bft) 97,62 %
03.08.2016 19:22 26,4 C 55 % 1012,0 hPa 0,0 l/m 3,2 km/h (1 Bft) NO 41 2 min 0,000 mm 0,0 UV-I 124 W/m 16,6 C 26,4 C 4,8 km/h (1 Bft) 98,00 %
03.08.2016 19:24 26,4 C 56 % 1012,0 hPa 0,0 l/m 3,7 km/h (1 Bft) NO 41 2 min 0,000 mm 0,0 UV-I 119 W/m 16,9 C 26,4 C 6,4 km/h (2 Bft) 97,14 %
03.08.2016 19:26 26,4 C 56 % 1012,0 hPa 0,0 l/m 2,7 km/h (1 Bft) NO 41 2 min 0,000 mm 0,0 UV-I 111 W/m 16,9 C 26,4 C 4,8 km/h (1 Bft) 98,11 %
03.08.2016 19:28 26,4 C 57 % 1011,9 hPa 0,0 l/m 5,8 km/h (2 Bft) NO 49 2 min 0,000 mm 0,0 UV-I 106 W/m 17,2 C 26,4 C 6,4 km/h (2 Bft) 98,00 %
03.08.2016 19:30 26,3 C 56 % 1012,0 hPa 0,0 l/m 6,2 km/h (2 Bft) O-NO 67 2 min 0,000 mm 0,0 UV-I 99 W/m 16,8 C 26,3 C 8,0 km/h (2 Bft) 100,00 %
03.08.2016 19:32 26,3 C 56 % 1012,0 hPa 0,0 l/m 6,2 km/h (2 Bft) O-NO 59 2 min 0,000 mm 0,0 UV-I 96 W/m 16,8 C 26,3 C 8,0 km/h (2 Bft) 100,00 %
03.08.2016 19:34 26,2 C 56 % 1012,0 hPa 0,0 l/m 5,2 km/h (1 Bft) NO 46 2 min 0,000 mm 0,0 UV-I 91 W/m 16,7 C 26,2 C 6,4 km/h (2 Bft) 97,37 %
03.08.2016 19:36 26,2 C 57 % 1012,0 hPa 0,0 l/m 4,7 km/h (1 Bft) NO 44 2 min 0,000 mm 0,0 UV-I 82 W/m 17,0 C 26,2 C 6,4 km/h (2 Bft) 100,00 %
03.08.2016 19:38 26,1 C 59 % 1012,0 hPa 0,0 l/m 3,8 km/h (1 Bft) O-NO 67 0 min 0,000 mm 0,0 UV-I 49 W/m 17,4 C 26,1 C 6,4 km/h (2 Bft) 100,00 %
03.08.2016 19:40 26,0 C 59 % 1012,1 hPa 0,0 l/m 4,0 km/h (1 Bft) NO 50 0 min 0,000 mm 0,0 UV-I 60 W/m 17,4 C 26,0 C 6,4 km/h (2 Bft) 97,37 %
03.08.2016 19:42 25,9 C 58 % 1012,0 hPa 0,0 l/m 4,5 km/h (1 Bft) NO 55 0 min 0,000 mm 0,0 UV-I 67 W/m 17,0 C 25,9 C 6,4 km/h (2 Bft) 100,00 %
03.08.2016 19:44 25,9 C 61 % 1012,0 hPa 0,0 l/m 3,1 km/h (1 Bft) NO 55 0 min 0,000 mm 0,0 UV-I 63 W/m 17,8 C 25,9 C 4,8 km/h (1 Bft) 100,00 %
03.08.2016 19:46 25,8 C 62 % 1012,0 hPa 0,0 l/m 3,4 km/h (1 Bft) O-NO 65 0 min 0,000 mm 0,0 UV-I 58 W/m 18,0 C 25,8 C 4,8 km/h (1 Bft) 98,00 %
03.08.2016 19:48 25,7 C 62 % 1012,0 hPa 0,0 l/m 3,5 km/h (1 Bft) O-NO 78 0 min 0,000 mm 0,0 UV-I 53 W/m 17,9 C 25,7 C 6,4 km/h (2 Bft) 97,56 %
03.08.2016 19:50 25,6 C 63 % 1012,0 hPa 0,0 l/m 2,8 km/h (1 Bft) O 80 0 min 0,000 mm 0,0 UV-I 49 W/m 18,0 C 25,6 C 4,8 km/h (1 Bft) 100,00 %
03.08.2016 19:52 25,5 C 60 % 1012,0 hPa 0,0 l/m 4,4 km/h (1 Bft) O 80 0 min 0,000 mm 0,0 UV-I 45 W/m 17,2 C 25,5 C 6,4 km/h (2 Bft) 100,00 %
03.08.2016 19:54 25,5 C 61 % 1012,0 hPa 0,0 l/m 3,5 km/h (1 Bft) O-NO 78 0 min 0,000 mm 0,0 UV-I 40 W/m 17,4 C 25,5 C 6,4 km/h (2 Bft) 100,00 %
03.08.2016 19:56 25,4 C 60 % 1012,0 hPa 0,0 l/m 2,4 km/h (1 Bft) O-NO 78 0 min 0,000 mm 0,0 UV-I 37 W/m 17,1 C 25,4 C 3,2 km/h (1 Bft) 100,00 %
03.08.2016 19:58 25,4 C 62 % 1012,0 hPa 0,0 l/m 2,6 km/h (1 Bft) O-NO 78 0 min 0,000 mm 0,0 UV-I 32 W/m 17,6 C 25,4 C 4,8 km/h (1 Bft) 100,00 %
03.08.2016 20:00 25,4 C 61 % 1012,0 hPa 0,0 l/m 2,4 km/h (1 Bft) O-NO 78 0 min 0,101 mm 0,0 UV-I 28 W/m 17,3 C 25,4 C 3,2 km/h (1 Bft) 97,62 %
03.08.2016 20:02 25,3 C 61 % 1012,0 hPa 0,0 l/m 3,4 km/h (1 Bft) O-NO 71 0 min 0,000 mm 0,0 UV-I 24 W/m 17,2 C 25,3 C 6,4 km/h (2 Bft) 97,87 %
03.08.2016 20:04 25,2 C 62 % 1012,0 hPa 0,0 l/m 4,7 km/h (1 Bft) O 82 0 min 0,000 mm 0,0 UV-I 23 W/m 17,4 C 25,2 C 6,4 km/h (2 Bft) 100,00 %
03.08.2016 20:06 25,0 C 63 % 1012,0 hPa 0,0 l/m 4,3 km/h (1 Bft) O-NO 76 0 min 0,000 mm 0,0 UV-I 19 W/m 17,5 C 25,0 C 6,4 km/h (2 Bft) 100,00 %
03.08.2016 20:08 24,8 C 63 % 1012,1 hPa 0,0 l/m 4,5 km/h (1 Bft) O-NO 76 0 min 0,000 mm 0,0 UV-I 18 W/m 17,3 C 24,8 C 6,4 km/h (2 Bft) 98,11 %
03.08.2016 20:10 24,8 C 63 % 1012,0 hPa 0,0 l/m 5,0 km/h (1 Bft) O 91 0 min 0,000 mm 0,0 UV-I 16 W/m 17,3 C 24,8 C 8,0 km/h (2 Bft) 100,00 %
03.08.2016 20:12 24,7 C 64 % 1012,0 hPa 0,0 l/m 5,4 km/h (1 Bft) O-NO 71 0 min 0,000 mm 0,0 UV-I 15 W/m 17,4 C 24,7 C 8,0 km/h (2 Bft) 98,11 %
03.08.2016 20:14 24,6 C 65 % 1012,1 hPa 0,0 l/m 7,5 km/h (2 Bft) O-NO 76 0 min 0,000 mm 0,0 UV-I 14 W/m 17,6 C 24,3 C 11,3 km/h (2 Bft) 100,00 %
03.08.2016 20:16 24,6 C 65 % 1012,1 hPa 0,0 l/m 7,0 km/h (2 Bft) O-NO 71 0 min 0,000 mm 0,0 UV-I 14 W/m 17,6 C 24,4 C 11,3 km/h (2 Bft) 100,00 %
03.08.2016 20:18 24,4 C 65 % 1012,0 hPa 0,0 l/m 6,6 km/h (2 Bft) O-NO 71 0 min 0,000 mm 0,0 UV-I 12 W/m 17,4 C 24,4 C 8,0 km/h (2 Bft) 100,00 %
03.08.2016 20:20 24,3 C 66 % 1012,0 hPa 0,0 l/m 5,9 km/h (2 Bft) O 86 0 min 0,000 mm 0,0 UV-I 11 W/m 17,5 C 24,3 C 9,7 km/h (2 Bft) 98,11 %
03.08.2016 20:22 24,3 C 66 % 1012,1 hPa 0,0 l/m 5,8 km/h (2 Bft) O 88 0 min 0,000 mm 0,0 UV-I 10 W/m 17,5 C 24,3 C 9,7 km/h (2 Bft) 100,00 %
03.08.2016 20:24 24,2 C 67 % 1012,0 hPa 0,0 l/m 5,5 km/h (1 Bft) O-NO 74 0 min 0,000 mm 0,0 UV-I 9 W/m 17,7 C 24,2 C 11,3 km/h (2 Bft) 100,00 %
03.08.2016 20:26 24,1 C 68 % 1012,1 hPa 0,0 l/m 5,4 km/h (1 Bft) O 87 0 min 0,000 mm 0,0 UV-I 8 W/m 17,8 C 24,1 C 8,0 km/h (2 Bft) 100,00 %
03.08.2016 20:28 24,0 C 68 % 1012,1 hPa 0,0 l/m 4,6 km/h (1 Bft) O-NO 71 0 min 0,000 mm 0,0 UV-I 7 W/m 17,7 C 24,0 C 8,0 km/h (2 Bft) 100,00 %
03.08.2016 20:30 23,9 C 68 % 1012,1 hPa 0,0 l/m 5,8 km/h (2 Bft) O-SO 105 0 min 0,000 mm 0,0 UV-I 7 W/m 17,6 C 23,9 C 8,0 km/h (2 Bft) 100,00 %
03.08.2016 20:32 23,8 C 68 % 1012,1 hPa 0,0 l/m 3,4 km/h (1 Bft) O-SO 111 0 min 0,000 mm 0,0 UV-I 5 W/m 17,5 C 23,8 C 6,4 km/h (2 Bft) 100,00 %
03.08.2016 20:34 23,8 C 69 % 1012,1 hPa 0,0 l/m 4,4 km/h (1 Bft) O 96 0 min 0,000 mm 0,0 UV-I 5 W/m 17,8 C 23,8 C 9,7 km/h (2 Bft) 100,00 %
03.08.2016 20:36 23,7 C 69 % 1012,1 hPa 0,0 l/m 5,5 km/h (1 Bft) O 99 0 min 0,000 mm 0,0 UV-I 5 W/m 17,7 C 23,7 C 9,7 km/h (2 Bft) 100,00 %
03.08.2016 20:38 23,7 C 69 % 1012,1 hPa 0,0 l/m 5,0 km/h (1 Bft) O-SO 121 0 min 0,000 mm 0,0 UV-I 1 W/m 17,7 C 23,7 C 9,7 km/h (2 Bft) 100,00 %
03.08.2016 20:40 23,6 C 70 % 1012,2 hPa 0,0 l/m 5,5 km/h (1 Bft) O 80 0 min 0,000 mm 0,0 UV-I 0 W/m 17,8 C 23,6 C 9,7 km/h (2 Bft) 100,00 %
03.08.2016 20:42 23,5 C 70 % 1012,2 hPa 0,0 l/m 5,8 km/h (2 Bft) O 88 0 min 0,000 mm 0,0 UV-I 0 W/m 17,7 C 23,5 C 11,3 km/h (2 Bft) 100,00 %
03.08.2016 20:44 23,4 C 70 % 1012,2 hPa 0,0 l/m 4,6 km/h (1 Bft) O-SO 102 0 min 0,000 mm 0,0 UV-I 0 W/m 17,6 C 23,4 C 6,4 km/h (2 Bft) 100,00 %
03.08.2016 20:46 23,4 C 71 % 1012,3 hPa 0,0 l/m 4,3 km/h (1 Bft) O 86 0 min 0,000 mm 0,0 UV-I 0 W/m 17,8 C 23,4 C 6,4 km/h (2 Bft) 100,00 %
03.08.2016 20:48 23,3 C 71 % 1012,3 hPa 0,0 l/m 5,2 km/h (1 Bft) O 82 0 min 0,000 mm 0,0 UV-I 0 W/m 17,7 C 23,3 C 8,0 km/h (2 Bft) 100,00 %
03.08.2016 20:50 23,3 C 71 % 1012,3 hPa 0,0 l/m 6,8 km/h (2 Bft) O-NO 74 0 min 0,000 mm 0,0 UV-I 0 W/m 17,7 C 23,2 C 11,3 km/h (2 Bft) 100,00 %
03.08.2016 20:52 23,2 C 71 % 1012,3 hPa 0,0 l/m 6,2 km/h (2 Bft) O 87 0 min 0,000 mm 0,0 UV-I 0 W/m 17,6 C 23,2 C 11,3 km/h (2 Bft) 100,00 %
03.08.2016 20:54 23,2 C 71 % 1012,3 hPa 0,0 l/m 5,5 km/h (1 Bft) O 82 0 min 0,000 mm 0,0 UV-I 0 W/m 17,6 C 23,2 C 8,0 km/h (2 Bft) 97,87 %
03.08.2016 20:56 23,2 C 71 % 1012,3 hPa 0,0 l/m 6,7 km/h (2 Bft) O 89 0 min 0,000 mm 0,0 UV-I 0 W/m 17,6 C 23,1 C 11,3 km/h (2 Bft) 97,87 %
03.08.2016 20:58 23,2 C 71 % 1012,3 hPa 0,0 l/m 7,8 km/h (2 Bft) O 96 0 min 0,000 mm 0,0 UV-I 0 W/m 17,6 C 22,8 C 11,3 km/h (2 Bft) 97,56 %
03.08.2016 21:00 23,1 C 72 % 1012,3 hPa 0,0 l/m 4,9 km/h (1 Bft) O 81 0 min 0,051 mm 0,0 UV-I 0 W/m 17,8 C 23,1 C 9,7 km/h (2 Bft) 92,45 %
03.08.2016 21:02 23,1 C 72 % 1012,3 hPa 0,0 l/m 4,5 km/h (1 Bft) O-SO 115 0 min 0,000 mm 0,0 UV-I 0 W/m 17,8 C 23,1 C 6,4 km/h (2 Bft) 94,74 %
03.08.2016 21:04 23,0 C 72 % 1012,4 hPa 0,0 l/m 5,4 km/h (1 Bft) O-NO 71 0 min 0,000 mm 0,0 UV-I 0 W/m 17,7 C 23,0 C 9,7 km/h (2 Bft) 98,11 %
03.08.2016 21:06 23,0 C 72 % 1012,4 hPa 0,0 l/m 8,3 km/h (2 Bft) O 93 0 min 0,000 mm 0,0 UV-I 0 W/m 17,7 C 22,4 C 12,9 km/h (3 Bft) 97,56 %
03.08.2016 21:08 22,9 C 73 % 1012,4 hPa 0,0 l/m 7,8 km/h (2 Bft) O-SO 110 0 min 0,000 mm 0,0 UV-I 0 W/m 17,8 C 22,5 C 14,5 km/h (3 Bft) 97,87 %
03.08.2016 21:10 22,9 C 73 % 1012,4 hPa 0,0 l/m 8,0 km/h (2 Bft) O-SO 112 0 min 0,000 mm 0,0 UV-I 0 W/m 17,8 C 22,4 C 14,5 km/h (3 Bft) 98,11 %
03.08.2016 21:12 22,9 C 73 % 1012,4 hPa 0,0 l/m 7,5 km/h (2 Bft) O 92 0 min 0,000 mm 0,0 UV-I 0 W/m 17,8 C 22,5 C 11,3 km/h (2 Bft) 97,56 %
03.08.2016 21:14 22,9 C 73 % 1012,4 hPa 0,0 l/m 8,5 km/h (2 Bft) O 86 0 min 0,000 mm 0,0 UV-I 0 W/m 17,8 C 22,2 C 12,9 km/h (3 Bft) 96,43 %
03.08.2016 21:16 22,9 C 73 % 1012,4 hPa 0,0 l/m 9,1 km/h (2 Bft) O 101 0 min 0,000 mm 0,0 UV-I 0 W/m 17,8 C 22,1 C 14,5 km/h (3 Bft) 100,00 %
03.08.2016 21:18 22,8 C 73 % 1012,5 hPa 0,0 l/m 5,5 km/h (1 Bft) O 86 0 min 0,000 mm 0,0 UV-I 0 W/m 17,7 C 22,8 C 9,7 km/h (2 Bft) 96,23 %
03.08.2016 21:20 22,8 C 73 % 1012,5 hPa 0,0 l/m 5,9 km/h (2 Bft) O 101 0 min 0,000 mm 0,0 UV-I 0 W/m 17,7 C 22,8 C 11,3 km/h (2 Bft) 97,87 %
03.08.2016 21:22 22,8 C 73 % 1012,5 hPa 0,0 l/m 6,3 km/h (2 Bft) O-SO 120 0 min 0,000 mm 0,0 UV-I 0 W/m 17,7 C 22,8 C 11,3 km/h (2 Bft) 95,74 %
03.08.2016 21:24 22,7 C 74 % 1012,5 hPa 0,0 l/m 4,9 km/h (1 Bft) O 94 0 min 0,000 mm 0,0 UV-I 0 W/m 17,8 C 22,7 C 9,7 km/h (2 Bft) 97,92 %
03.08.2016 21:26 22,6 C 74 % 1012,5 hPa 0,0 l/m 4,8 km/h (1 Bft) O 98 0 min 0,000 mm 0,0 UV-I 0 W/m 17,7 C 22,6 C 6,4 km/h (2 Bft) 100,00 %
03.08.2016 21:28 22,4 C 75 % 1012,5 hPa 0,0 l/m 6,1 km/h (2 Bft) O 93 0 min 0,000 mm 0,0 UV-I 0 W/m 17,7 C 22,4 C 11,3 km/h (2 Bft) 100,00 %
03.08.2016 21:30 22,3 C 75 % 1012,6 hPa 0,0 l/m 5,0 km/h (1 Bft) O 90 0 min 0,000 mm 0,0 UV-I 0 W/m 17,6 C 22,3 C 6,4 km/h (2 Bft) 98,00 %
03.08.2016 21:32 22,2 C 76 % 1012,5 hPa 0,0 l/m 4,0 km/h (1 Bft) O-SO 112 0 min 0,000 mm 0,0 UV-I 0 W/m 17,8 C 22,2 C 6,4 km/h (2 Bft) 97,73 %
03.08.2016 21:34 22,2 C 76 % 1012,6 hPa 0,0 l/m 4,1 km/h (1 Bft) O-NO 71 0 min 0,000 mm 0,0 UV-I 0 W/m 17,8 C 22,2 C 6,4 km/h (2 Bft) 100,00 %
03.08.2016 21:36 22,2 C 76 % 1012,6 hPa 0,0 l/m 3,9 km/h (1 Bft) O 84 0 min 0,000 mm 0,0 UV-I 0 W/m 17,8 C 22,2 C 8,0 km/h (2 Bft) 97,37 %
03.08.2016 21:38 22,2 C 75 % 1012,6 hPa 0,0 l/m 6,1 km/h (2 Bft) O 94 0 min 0,000 mm 0,0 UV-I 0 W/m 17,5 C 22,2 C 9,7 km/h (2 Bft) 100,00 %
03.08.2016 21:40 22,2 C 75 % 1012,6 hPa 0,0 l/m 5,7 km/h (1 Bft) O-SO 103 0 min 0,000 mm 0,0 UV-I 0 W/m 17,5 C 22,2 C 9,7 km/h (2 Bft) 100,00 %
03.08.2016 21:42 22,2 C 75 % 1012,6 hPa 0,0 l/m 4,2 km/h (1 Bft) O 96 0 min 0,000 mm 0,0 UV-I 0 W/m 17,5 C 22,2 C 6,4 km/h (2 Bft) 100,00 %
03.08.2016 21:44 22,2 C 76 % 1012,6 hPa 0,0 l/m 4,7 km/h (1 Bft) O 81 0 min 0,000 mm 0,0 UV-I 0 W/m 17,8 C 22,2 C 9,7 km/h (2 Bft) 100,00 %
03.08.2016 21:46 22,1 C 77 % 1012,6 hPa 0,0 l/m 4,5 km/h (1 Bft) O-SO 106 0 min 0,000 mm 0,0 UV-I 0 W/m 17,9 C 22,1 C 6,4 km/h (2 Bft) 100,00 %
03.08.2016 21:48 21,9 C 77 % 1012,6 hPa 0,0 l/m 3,7 km/h (1 Bft) O-SO 108 0 min 0,000 mm 0,0 UV-I 0 W/m 17,7 C 21,9 C 6,4 km/h (2 Bft) 100,00 %
03.08.2016 21:50 21,9 C 77 % 1012,6 hPa 0,0 l/m 3,5 km/h (1 Bft) O-SO 109 0 min 0,000 mm 0,0 UV-I 0 W/m 17,7 C 21,9 C 4,8 km/h (1 Bft) 100,00 %
03.08.2016 21:52 21,8 C 77 % 1012,6 hPa 0,0 l/m 3,7 km/h (1 Bft) O-SO 109 0 min 0,000 mm 0,0 UV-I 0 W/m 17,6 C 21,8 C 4,8 km/h (1 Bft) 100,00 %
03.08.2016 21:54 21,8 C 77 % 1012,5 hPa 0,0 l/m 4,6 km/h (1 Bft) O 84 0 min 0,000 mm 0,0 UV-I 0 W/m 17,6 C 21,8 C 6,4 km/h (2 Bft) 100,00 %
03.08.2016 21:56 21,8 C 77 % 1012,6 hPa 0,0 l/m 3,5 km/h (1 Bft) O-SO 103 0 min 0,000 mm 0,0 UV-I 0 W/m 17,6 C 21,8 C 6,4 km/h (2 Bft) 100,00 %
03.08.2016 21:58 21,8 C 77 % 1012,6 hPa 0,0 l/m 3,2 km/h (1 Bft) O-SO 105 0 min 0,000 mm 0,0 UV-I 0 W/m 17,6 C 21,8 C 6,4 km/h (2 Bft) 100,00 %
03.08.2016 22:00 21,8 C 77 % 1012,6 hPa 0,0 l/m 3,6 km/h (1 Bft) O 89 0 min 0,026 mm 0,0 UV-I 0 W/m 17,6 C 21,8 C 6,4 km/h (2 Bft) 100,00 %
03.08.2016 22:02 21,7 C 77 % 1012,5 hPa 0,0 l/m 4,7 km/h (1 Bft) O 90 0 min 0,000 mm 0,0 UV-I 0 W/m 17,5 C 21,7 C 9,7 km/h (2 Bft) 100,00 %
03.08.2016 22:04 21,7 C 78 % 1012,6 hPa 0,0 l/m 4,0 km/h (1 Bft) O 98 0 min 0,000 mm 0,0 UV-I 0 W/m 17,7 C 21,7 C 6,4 km/h (2 Bft) 98,00 %
03.08.2016 22:06 21,7 C 78 % 1012,6 hPa 0,0 l/m 4,2 km/h (1 Bft) O 88 0 min 0,000 mm 0,0 UV-I 0 W/m 17,7 C 21,7 C 6,4 km/h (2 Bft) 100,00 %
03.08.2016 22:08 21,7 C 78 % 1012,6 hPa 0,0 l/m 3,3 km/h (1 Bft) O 91 0 min 0,000 mm 0,0 UV-I 0 W/m 17,7 C 21,7 C 4,8 km/h (1 Bft) 100,00 %
03.08.2016 22:10 21,6 C 78 % 1012,5 hPa 0,0 l/m 3,3 km/h (1 Bft) O 94 0 min 0,000 mm 0,0 UV-I 0 W/m 17,6 C 21,6 C 4,8 km/h (1 Bft) 100,00 %
03.08.2016 22:12 21,5 C 78 % 1012,6 hPa 0,0 l/m 2,3 km/h (1 Bft) O 96 0 min 0,000 mm 0,0 UV-I 0 W/m 17,5 C 21,5 C 4,8 km/h (1 Bft) 98,00 %
03.08.2016 22:14 21,4 C 79 % 1012,6 hPa 0,0 l/m 0,7 km/h (0 Bft) O 96 0 min 0,000 mm 0,0 UV-I 0 W/m 17,6 C 21,4 C 1,6 km/h (1 Bft) 100,00 %
03.08.2016 22:16 21,4 C 79 % 1012,6 hPa 0,0 l/m 0,2 km/h (0 Bft) O 96 0 min 0,000 mm 0,0 UV-I 0 W/m 17,6 C 21,4 C 1,6 km/h (1 Bft) 100,00 %
03.08.2016 22:18 21,3 C 79 % 1012,6 hPa 0,0 l/m 1,7 km/h (1 Bft) O-SO 104 0 min 0,000 mm 0,0 UV-I 0 W/m 17,5 C 21,3 C 6,4 km/h (2 Bft) 100,00 %
03.08.2016 22:20 21,4 C 79 % 1012,6 hPa 0,0 l/m 2,5 km/h (1 Bft) O 93 0 min 0,000 mm 0,0 UV-I 0 W/m 17,6 C 21,4 C 4,8 km/h (1 Bft) 100,00 %
03.08.2016 22:22 21,3 C 80 % 1012,6 hPa 0,0 l/m 1,7 km/h (1 Bft) O 95 0 min 0,000 mm 0,0 UV-I 0 W/m 17,7 C 21,3 C 4,8 km/h (1 Bft) 100,00 %
03.08.2016 22:24 21,3 C 80 % 1012,6 hPa 0,0 l/m 3,0 km/h (1 Bft) O 101 0 min 0,000 mm 0,0 UV-I 0 W/m 17,7 C 21,3 C 4,8 km/h (1 Bft) 100,00 %
03.08.2016 22:26 21,2 C 80 % 1012,5 hPa 0,0 l/m 1,2 km/h (1 Bft) O 101 0 min 0,000 mm 0,0 UV-I 0 W/m 17,6 C 21,2 C 3,2 km/h (1 Bft) 100,00 %
03.08.2016 22:28 21,1 C 80 % 1012,6 hPa 0,0 l/m 2,5 km/h (1 Bft) SO 126 0 min 0,000 mm 0,0 UV-I 0 W/m 17,5 C 21,1 C 4,8 km/h (1 Bft) 100,00 %
03.08.2016 22:30 21,1 C 81 % 1012,5 hPa 0,0 l/m 2,4 km/h (1 Bft) O-SO 118 0 min 0,000 mm 0,0 UV-I 0 W/m 17,7 C 21,1 C 4,8 km/h (1 Bft) 100,00 %
03.08.2016 22:32 21,0 C 81 % 1012,6 hPa 0,0 l/m 4,0 km/h (1 Bft) O-SO 118 0 min 0,000 mm 0,0 UV-I 0 W/m 17,6 C 21,0 C 9,7 km/h (2 Bft) 100,00 %
03.08.2016 22:34 21,1 C 81 % 1012,6 hPa 0,0 l/m 2,5 km/h (1 Bft) O-SO 117 0 min 0,000 mm 0,0 UV-I 0 W/m 17,7 C 21,1 C 4,8 km/h (1 Bft) 100,00 %
03.08.2016 22:36 21,1 C 80 % 1012,6 hPa 0,0 l/m 2,2 km/h (1 Bft) O-SO 117 0 min 0,000 mm 0,0 UV-I 0 W/m 17,5 C 21,1 C 4,8 km/h (1 Bft) 98,00 %
03.08.2016 22:38 21,2 C 80 % 1012,5 hPa 0,0 l/m 3,0 km/h (1 Bft) O-SO 117 0 min 0,000 mm 0,0 UV-I 0 W/m 17,6 C 21,2 C 4,8 km/h (1 Bft) 100,00 %
03.08.2016 22:40 21,2 C 81 % 1012,5 hPa 0,0 l/m 1,6 km/h (1 Bft) O-SO 117 0 min 0,000 mm 0,0 UV-I 0 W/m 17,8 C 21,2 C 4,8 km/h (1 Bft) 100,00 %
03.08.2016 22:42 21,0 C 82 % 1012,5 hPa 0,0 l/m 0,2 km/h (0 Bft) O-SO 117 0 min 0,000 mm 0,0 UV-I 0 W/m 17,8 C 21,0 C 3,2 km/h (1 Bft) 100,00 %
03.08.2016 22:44 20,9 C 82 % 1012,5 hPa 0,0 l/m 0,2 km/h (0 Bft) O-SO 117 0 min 0,000 mm 0,0 UV-I 0 W/m 17,7 C 20,9 C 1,6 km/h (1 Bft) 100,00 %
03.08.2016 22:46 20,9 C 82 % 1012,5 hPa 0,0 l/m 0,6 km/h (0 Bft) O-SO 117 0 min 0,000 mm 0,0 UV-I 0 W/m 17,7 C 20,9 C 1,6 km/h (1 Bft) 100,00 %
03.08.2016 22:48 20,8 C 83 % 1012,5 hPa 0,0 l/m 0,3 km/h (0 Bft) O-SO 117 0 min 0,000 mm 0,0 UV-I 0 W/m 17,8 C 20,8 C 1,6 km/h (1 Bft) 100,00 %
03.08.2016 22:50 20,7 C 82 % 1012,5 hPa 0,0 l/m 0,7 km/h (0 Bft) O-SO 117 0 min 0,000 mm 0,0 UV-I 0 W/m 17,5 C 20,7 C 3,2 km/h (1 Bft) 100,00 %
03.08.2016 22:52 20,7 C 82 % 1012,5 hPa 0,0 l/m 1,6 km/h (1 Bft) O-SO 118 0 min 0,000 mm 0,0 UV-I 0 W/m 17,5 C 20,7 C 4,8 km/h (1 Bft) 97,14 %
03.08.2016 22:54 20,7 C 82 % 1012,5 hPa 0,0 l/m 0,6 km/h (0 Bft) O-SO 118 0 min 0,000 mm 0,0 UV-I 0 W/m 17,5 C 20,7 C 1,6 km/h (1 Bft) 96,00 %
03.08.2016 22:56 20,7 C 83 % 1012,5 hPa 0,0 l/m 1,6 km/h (1 Bft) O-SO 118 0 min 0,000 mm 0,0 UV-I 0 W/m 17,7 C 20,7 C 3,2 km/h (1 Bft) 96,23 %
03.08.2016 22:58 20,5 C 83 % 1012,5 hPa 0,0 l/m 1,8 km/h (1 Bft) O-SO 118 0 min 0,000 mm 0,0 UV-I 0 W/m 17,5 C 20,5 C 3,2 km/h (1 Bft) 97,87 %
03.08.2016 23:00 20,3 C 84 % 1012,5 hPa 0,0 l/m 1,4 km/h (1 Bft) O-SO 118 0 min 0,000 mm 0,0 UV-I 0 W/m 17,5 C 20,3 C 3,2 km/h (1 Bft) 96,00 %
03.08.2016 23:02 20,2 C 85 % 1012,5 hPa 0,0 l/m 0,6 km/h (0 Bft) O-SO 118 0 min 0,000 mm 0,0 UV-I 0 W/m 17,6 C 20,2 C 1,6 km/h (1 Bft) 94,74 %
03.08.2016 23:04 20,2 C 85 % 1012,4 hPa 0,0 l/m 0,4 km/h (0 Bft) O-SO 118 0 min 0,000 mm 0,0 UV-I 0 W/m 17,6 C 20,2 C 1,6 km/h (1 Bft) 98,00 %
03.08.2016 23:06 20,1 C 85 % 1012,4 hPa 0,0 l/m 0,1 km/h (0 Bft) O-SO 118 0 min 0,000 mm 0,0 UV-I 0 W/m 17,5 C 20,1 C 1,6 km/h (1 Bft) 98,00 %
03.08.2016 23:08 20,1 C 85 % 1012,4 hPa 0,0 l/m 1,4 km/h (1 Bft) O-SO 118 0 min 0,000 mm 0,0 UV-I 0 W/m 17,5 C 20,1 C 1,6 km/h (1 Bft) 97,87 %
03.08.2016 23:10 20,0 C 86 % 1012,5 hPa 0,0 l/m 1,2 km/h (1 Bft) O-SO 118 0 min 0,000 mm 0,0 UV-I 0 W/m 17,6 C 20,0 C 1,6 km/h (1 Bft) 97,73 %
03.08.2016 23:12 19,9 C 86 % 1012,4 hPa 0,0 l/m 2,3 km/h (1 Bft) O-SO 118 0 min 0,000 mm 0,0 UV-I 0 W/m 17,5 C 19,9 C 3,2 km/h (1 Bft) 97,44 %
03.08.2016 23:14 19,8 C 86 % 1012,5 hPa 0,0 l/m 1,8 km/h (1 Bft) O-SO 118 0 min 0,000 mm 0,0 UV-I 0 W/m 17,4 C 19,8 C 3,2 km/h (1 Bft) 98,00 %
03.08.2016 23:16 19,8 C 86 % 1012,4 hPa 0,0 l/m 2,0 km/h (1 Bft) O-SO 118 0 min 0,000 mm 0,0 UV-I 0 W/m 17,4 C 19,8 C 3,2 km/h (1 Bft) 97,73 %
03.08.2016 23:18 19,7 C 86 % 1012,5 hPa 0,0 l/m 1,3 km/h (1 Bft) O-SO 118 0 min 0,000 mm 0,0 UV-I 0 W/m 17,3 C 19,7 C 3,2 km/h (1 Bft) 94,34 %
03.08.2016 23:20 19,7 C 86 % 1012,4 hPa 0,0 l/m 1,9 km/h (1 Bft) O-SO 118 0 min 0,000 mm 0,0 UV-I 0 W/m 17,3 C 19,7 C 3,2 km/h (1 Bft) 98,00 %
03.08.2016 23:22 19,7 C 87 % 1012,5 hPa 0,0 l/m 2,6 km/h (1 Bft) S 170 0 min 0,000 mm 0,0 UV-I 0 W/m 17,5 C 19,7 C 4,8 km/h (1 Bft) 97,92 %
03.08.2016 23:24 19,6 C 87 % 1012,5 hPa 0,0 l/m 3,3 km/h (1 Bft) S 171 0 min 0,000 mm 0,0 UV-I 0 W/m 17,4 C 19,6 C 6,4 km/h (2 Bft) 94,00 %
03.08.2016 23:26 19,5 C 87 % 1012,5 hPa 0,0 l/m 4,0 km/h (1 Bft) S 188 0 min 0,000 mm 0,0 UV-I 0 W/m 17,3 C 19,5 C 6,4 km/h (2 Bft) 100,00 %
03.08.2016 23:28 19,4 C 87 % 1012,5 hPa 0,0 l/m 2,7 km/h (1 Bft) S 188 0 min 0,000 mm 0,0 UV-I 0 W/m 17,2 C 19,4 C 3,2 km/h (1 Bft) 94,34 %
03.08.2016 23:30 19,3 C 88 % 1012,5 hPa 0,0 l/m 2,3 km/h (1 Bft) S 188 0 min 0,000 mm 0,0 UV-I 0 W/m 17,3 C 19,3 C 3,2 km/h (1 Bft) 100,00 %
03.08.2016 23:32 19,2 C 89 % 1012,5 hPa 0,0 l/m 3,0 km/h (1 Bft) S 188 0 min 0,000 mm 0,0 UV-I 0 W/m 17,3 C 19,2 C 4,8 km/h (1 Bft) 100,00 %
03.08.2016 23:34 19,2 C 89 % 1012,5 hPa 0,0 l/m 3,4 km/h (1 Bft) S 188 0 min 0,000 mm 0,0 UV-I 0 W/m 17,3 C 19,2 C 4,8 km/h (1 Bft) 100,00 %
03.08.2016 23:36 19,2 C 89 % 1012,6 hPa 0,0 l/m 2,8 km/h (1 Bft) S 188 0 min 0,000 mm 0,0 UV-I 0 W/m 17,3 C 19,2 C 4,8 km/h (1 Bft) 98,11 %
03.08.2016 23:38 19,3 C 89 % 1012,6 hPa 0,0 l/m 2,4 km/h (1 Bft) S 188 0 min 0,000 mm 0,0 UV-I 0 W/m 17,4 C 19,3 C 3,2 km/h (1 Bft) 100,00 %
03.08.2016 23:40 19,4 C 88 % 1012,6 hPa 0,0 l/m 1,6 km/h (1 Bft) S 188 0 min 0,000 mm 0,0 UV-I 0 W/m 17,4 C 19,4 C 3,2 km/h (1 Bft) 100,00 %
03.08.2016 23:42 19,4 C 88 % 1012,6 hPa 0,0 l/m 1,7 km/h (1 Bft) S 188 0 min 0,000 mm 0,0 UV-I 0 W/m 17,4 C 19,4 C 3,2 km/h (1 Bft) 100,00 %
03.08.2016 23:44 19,5 C 88 % 1012,7 hPa 0,0 l/m 1,3 km/h (1 Bft) S 188 0 min 0,000 mm 0,0 UV-I 0 W/m 17,5 C 19,5 C 3,2 km/h (1 Bft) 98,11 %
03.08.2016 23:46 19,4 C 88 % 1012,6 hPa 0,0 l/m 1,4 km/h (1 Bft) S 188 0 min 0,000 mm 0,0 UV-I 0 W/m 17,4 C 19,4 C 3,2 km/h (1 Bft) 97,37 %
03.08.2016 23:48 19,4 C 88 % 1012,6 hPa 0,0 l/m 1,8 km/h (1 Bft) S 188 0 min 0,000 mm 0,0 UV-I 0 W/m 17,4 C 19,4 C 3,2 km/h (1 Bft) 97,87 %
03.08.2016 23:50 19,3 C 88 % 1012,6 hPa 0,0 l/m 1,5 km/h (1 Bft) S 188 0 min 0,000 mm 0,0 UV-I 0 W/m 17,3 C 19,3 C 3,2 km/h (1 Bft) 97,87 %
03.08.2016 23:52 19,3 C 88 % 1012,6 hPa 0,0 l/m 1,2 km/h (1 Bft) S 190 0 min 0,000 mm 0,0 UV-I 0 W/m 17,3 C 19,3 C 3,2 km/h (1 Bft) 100,00 %
03.08.2016 23:54 19,1 C 88 % 1012,6 hPa 0,0 l/m 2,1 km/h (1 Bft) S 190 0 min 0,000 mm 0,0 UV-I 0 W/m 17,1 C 19,1 C 3,2 km/h (1 Bft) 100,00 %
03.08.2016 23:56 18,9 C 90 % 1012,6 hPa 0,0 l/m 1,5 km/h (1 Bft) S 190 0 min 0,000 mm 0,0 UV-I 0 W/m 17,2 C 18,9 C 3,2 km/h (1 Bft) 100,00 %
03.08.2016 23:58 18,8 C 90 % 1012,6 hPa 0,0 l/m 2,0 km/h (1 Bft) S 190 0 min 0,000 mm 0,0 UV-I 0 W/m 17,1 C 18,8 C 3,2 km/h (1 Bft) 100,00 %
_ Min-Zeit 01:28 16:42 18:38 - 23:06 - - - - - - 12:38 00:02 00:54 09:44
Minimum _ 15,9 C 47 % 1011,9 hPa - 0,1 km/h (0 Bft) - - - - - - 14,8 C 12,5 C 1,6 km/h (1 Bft) 89,47 %
_ Max-Zeit 17:16 01:52 02:36 00:48 00:02 - - 08:30 15:00 13:06 14:42 19:50 16:40 00:02 00:06
Maximum _ 27,9 C 96 % 1017,9 hPa 0,4 l/m 17,4 km/h
SW (3 Bft)
- - 2 min 0,508 mm 6,7 UV-I 853 W/m 18,0 C 27,8 C 32,2 km/h
SW (5 Bft)
100,00 %
Durchschnitt _ 21,2 C 75 % 1014,9 hPa #1,8 l/m 5,3 km/h (1 Bft) W-SW - #10:54 h #4,420 mm 3,8 UV-I 432 W/m 16,2 C 21,0 C 9,2 km/h (2 Bft) 98,71 %